GEFSNE_prec_meanprecacc_048.txt.gz
Total_Precipitation_Accumulation
0.88 0.92 0.86 0.80 0.74 0.64 0.59 0.59 0.62 0.58 0.53 0.37 0.20 0.10 0.10 0.08 0.06 0.04 0.02 0.01 0.01 0.00 0.01 0.01 0.00 0.00 0.00 0.00 0.00 0.01 0.01 0.01 0.02 0.05 0.11 0.18 0.24 0.27
0.86 0.92 0.93 0.92 0.91 0.81 0.69 0.64 0.58 0.59 0.57 0.47 0.32 0.17 0.20 0.18 0.14 0.07 0.04 0.03 0.02 0.01 0.01 0.01 0.01 0.00 0.00 0.00 0.00 0.00 0.00 0.00 0.01 0.04 0.16 0.38 0.47 0.43
0.74 0.82 0.94 0.98 1.03 1.00 0.94 0.82 0.71 0.69 0.66 0.59 0.44 0.25 0.23 0.24 0.21 0.13 0.07 0.04 0.03 0.02 0.02 0.01 0.01 0.01 0.00 0.00 0.00 0.00 0.00 0.00 0.01 0.03 0.09 0.24 0.52 0.61
0.66 0.68 0.77 0.87 0.97 1.04 1.04 1.00 0.96 0.85 0.82 0.79 0.65 0.44 0.30 0.27 0.22 0.17 0.13 0.09 0.06 0.07 0.08 0.05 0.02 0.01 0.00 0.00 0.00 0.00 0.00 0.00 0.01 0.02 0.04 0.07 0.14 0.27
0.50 0.51 0.54 0.63 0.76 0.91 0.99 1.01 1.04 1.04 0.99 0.91 0.80 0.66 0.44 0.33 0.26 0.22 0.18 0.15 0.12 0.11 0.12 0.11 0.08 0.05 0.03 0.02 0.01 0.00 0.00 0.00 0.00 0.00 0.01 0.02 0.02 0.05
0.34 0.32 0.33 0.38 0.47 0.61 0.77 0.92 1.03 1.09 1.12 1.08 0.91 0.71 0.60 0.50 0.34 0.26 0.26 0.24 0.21 0.19 0.15 0.15 0.15 0.11 0.08 0.05 0.03 0.02 0.01 0.01 0.00 0.00 0.00 0.00 0.00 0.01
0.25 0.19 0.19 0.23 0.27 0.33 0.40 0.59 0.81 0.95 1.00 1.04 0.96 0.79 0.64 0.55 0.43 0.37 0.35 0.34 0.29 0.26 0.23 0.21 0.19 0.16 0.15 0.13 0.09 0.06 0.04 0.03 0.02 0.01 0.00 0.00 0.00 0.00
0.19 0.17 0.18 0.21 0.21 0.19 0.20 0.29 0.46 0.63 0.78 0.90 0.94 0.84 0.70 0.62 0.56 0.49 0.39 0.32 0.28 0.24 0.24 0.27 0.26 0.23 0.23 0.21 0.21 0.19 0.14 0.09 0.06 0.04 0.02 0.01 0.00 0.00
0.25 0.24 0.22 0.21 0.24 0.20 0.19 0.20 0.23 0.27 0.39 0.59 0.75 0.80 0.87 0.75 0.59 0.47 0.39 0.34 0.35 0.35 0.29 0.26 0.25 0.23 0.25 0.24 0.26 0.26 0.24 0.18 0.13 0.10 0.06 0.04 0.02 0.01
0.31 0.31 0.32 0.28 0.27 0.28 0.29 0.33 0.32 0.29 0.35 0.28 0.38 0.65 0.73 0.71 0.63 0.55 0.49 0.43 0.37 0.32 0.29 0.27 0.29 0.28 0.24 0.21 0.22 0.21 0.19 0.17 0.15 0.14 0.12 0.10 0.08 0.06
0.35 0.37 0.37 0.32 0.38 0.34 0.38 0.51 0.50 0.44 0.55 0.53 0.48 0.50 0.51 0.48 0.48 0.51 0.50 0.44 0.38 0.32 0.25 0.21 0.21 0.24 0.25 0.26 0.23 0.21 0.19 0.16 0.13 0.10 0.09 0.07 0.06 0.06
0.44 0.46 0.54 0.44 0.44 0.33 0.30 0.44 0.51 0.46 0.41 0.43 0.40 0.33 0.25 0.26 0.31 0.33 0.45 0.51 0.48 0.40 0.32 0.24 0.23 0.22 0.22 0.22 0.19 0.17 0.15 0.12 0.10 0.08 0.06 0.05 0.04 0.03
0.59 0.64 0.59 0.59 0.39 0.28 0.24 0.28 0.35 0.37 0.40 0.45 0.47 0.40 0.31 0.29 0.27 0.25 0.29 0.34 0.41 0.45 0.39 0.29 0.25 0.23 0.19 0.17 0.16 0.14 0.13 0.10 0.09 0.08 0.08 0.08 0.07 0.06
0.59 0.57 0.50 0.49 0.32 0.22 0.17 0.20 0.19 0.20 0.28 0.41 0.44 0.42 0.41 0.40 0.35 0.31 0.28 0.26 0.29 0.36 0.37 0.30 0.25 0.21 0.18 0.14 0.13 0.13 0.13 0.10 0.08 0.07 0.07 0.08 0.08 0.08
0.38 0.40 0.36 0.28 0.21 0.15 0.13 0.14 0.15 0.19 0.24 0.29 0.35 0.38 0.38 0.38 0.38 0.36 0.32 0.27 0.24 0.21 0.19 0.21 0.22 0.23 0.21 0.17 0.13 0.13 0.14 0.12 0.11 0.10 0.09 0.08 0.08 0.08
0.30 0.27 0.23 0.18 0.16 0.16 0.16 0.15 0.16 0.20 0.25 0.28 0.31 0.34 0.36 0.36 0.36 0.36 0.38 0.38 0.39 0.36 0.32 0.29 0.27 0.28 0.29 0.28 0.23 0.19 0.20 0.20 0.18 0.18 0.16 0.14 0.13 0.13
0.39 0.31 0.24 0.21 0.20 0.22 0.24 0.22 0.22 0.25 0.27 0.28 0.28 0.28 0.29 0.32 0.35 0.32 0.31 0.33 0.36 0.36 0.37 0.37 0.36 0.35 0.34 0.35 0.37 0.36 0.36 0.34 0.32 0.29 0.24 0.20 0.17 0.17
0.40 0.43 0.43 0.46 0.45 0.43 0.39 0.31 0.26 0.25 0.28 0.32 0.31 0.28 0.28 0.29 0.33 0.34 0.31 0.31 0.31 0.29 0.27 0.27 0.30 0.33 0.35 0.34 0.29 0.31 0.37 0.37 0.38 0.37 0.32 0.25 0.21 0.22
0.39 0.52 0.52 0.50 0.44 0.39 0.36 0.30 0.24 0.20 0.19 0.23 0.31 0.35 0.33 0.33 0.35 0.38 0.35 0.31 0.29 0.29 0.28 0.24 0.22 0.24 0.27 0.27 0.27 0.24 0.26 0.30 0.31 0.30 0.29 0.27 0.24 0.25
0.34 0.41 0.41 0.38 0.32 0.23 0.17 0.13 0.13 0.11 0.10 0.10 0.12 0.19 0.30 0.38 0.44 0.47 0.49 0.50 0.47 0.43 0.38 0.31 0.25 0.20 0.20 0.20 0.18 0.17 0.16 0.19 0.24 0.24 0.22 0.23 0.22 0.22
0.16 0.16 0.16 0.16 0.14 0.11 0.08 0.05 0.04 0.04 0.04 0.04 0.05 0.07 0.13 0.25 0.38 0.47 0.51 0.54 0.53 0.53 0.50 0.46 0.41 0.39 0.31 0.29 0.26 0.20 0.16 0.16 0.15 0.14 0.14 0.15 0.15 0.16
0.07 0.07 0.06 0.06 0.06 0.05 0.05 0.04 0.04 0.03 0.04 0.05 0.08 0.12 0.17 0.19 0.22 0.31 0.41 0.45 0.43 0.40 0.41 0.43 0.44 0.43 0.39 0.37 0.35 0.28 0.22 0.19 0.20 0.21 0.17 0.16 0.13 0.13
0.06 0.05 0.05 0.04 0.03 0.04 0.04 0.04 0.03 0.03 0.03 0.03 0.06 0.12 0.18 0.24 0.25 0.24 0.25 0.29 0.33 0.36 0.38 0.38 0.39 0.38 0.39 0.41 0.41 0.38 0.32 0.27 0.26 0.28 0.30 0.37 0.32 0.22

GEFSNE_prec_meanprecacc_054.txt.gz
Total_Precipitation_Accumulation
0.98 1.01 0.94 0.89 0.84 0.74 0.69 0.67 0.70 0.64 0.56 0.39 0.21 0.11 0.11 0.09 0.07 0.04 0.02 0.02 0.02 0.01 0.01 0.01 0.00 0.00 0.00 0.00 0.00 0.01 0.01 0.01 0.03 0.05 0.11 0.18 0.25 0.28
0.95 1.00 1.00 0.99 0.98 0.89 0.77 0.72 0.65 0.65 0.61 0.50 0.33 0.18 0.20 0.18 0.14 0.08 0.04 0.03 0.03 0.03 0.02 0.01 0.01 0.00 0.00 0.00 0.00 0.00 0.00 0.01 0.01 0.04 0.16 0.38 0.47 0.43
0.83 0.90 1.01 1.05 1.10 1.05 1.00 0.88 0.76 0.73 0.70 0.62 0.45 0.25 0.23 0.24 0.22 0.14 0.07 0.05 0.04 0.03 0.03 0.02 0.01 0.01 0.00 0.00 0.00 0.00 0.00 0.00 0.01 0.03 0.09 0.24 0.53 0.61
0.71 0.73 0.83 0.92 1.01 1.09 1.09 1.04 1.00 0.88 0.85 0.81 0.67 0.45 0.30 0.27 0.22 0.18 0.14 0.10 0.07 0.08 0.09 0.07 0.03 0.02 0.01 0.01 0.00 0.00 0.00 0.00 0.01 0.02 0.04 0.07 0.14 0.27
0.54 0.55 0.58 0.67 0.79 0.93 1.01 1.03 1.06 1.06 1.01 0.92 0.81 0.67 0.45 0.33 0.27 0.22 0.18 0.16 0.13 0.12 0.14 0.13 0.11 0.07 0.07 0.06 0.04 0.02 0.01 0.01 0.01 0.01 0.01 0.02 0.03 0.05
0.38 0.36 0.37 0.41 0.49 0.63 0.78 0.92 1.04 1.09 1.12 1.08 0.92 0.72 0.60 0.50 0.34 0.27 0.27 0.25 0.22 0.20 0.17 0.17 0.18 0.16 0.13 0.10 0.09 0.07 0.05 0.04 0.03 0.02 0.01 0.01 0.01 0.01
0.31 0.23 0.21 0.25 0.29 0.34 0.41 0.60 0.81 0.95 1.00 1.04 0.96 0.79 0.64 0.55 0.44 0.37 0.36 0.36 0.31 0.29 0.28 0.24 0.22 0.19 0.19 0.19 0.17 0.14 0.11 0.10 0.08 0.06 0.04 0.03 0.02 0.02
0.25 0.21 0.21 0.24 0.22 0.19 0.20 0.29 0.46 0.63 0.78 0.90 0.94 0.84 0.71 0.62 0.56 0.49 0.39 0.33 0.29 0.26 0.25 0.28 0.28 0.26 0.28 0.27 0.28 0.27 0.22 0.19 0.16 0.12 0.10 0.08 0.07 0.05
0.29 0.28 0.26 0.24 0.27 0.21 0.20 0.20 0.24 0.27 0.39 0.59 0.75 0.81 0.88 0.76 0.59 0.47 0.39 0.34 0.35 0.35 0.30 0.27 0.27 0.27 0.30 0.30 0.33 0.34 0.33 0.29 0.24 0.21 0.18 0.17 0.16 0.15
0.36 0.36 0.37 0.32 0.30 0.30 0.30 0.34 0.33 0.29 0.35 0.28 0.38 0.66 0.73 0.71 0.63 0.55 0.49 0.43 0.37 0.32 0.30 0.29 0.31 0.30 0.27 0.26 0.29 0.29 0.28 0.28 0.29 0.29 0.30 0.29 0.27 0.24
0.39 0.42 0.41 0.35 0.41 0.37 0.40 0.52 0.51 0.45 0.56 0.54 0.49 0.51 0.51 0.48 0.48 0.51 0.50 0.44 0.39 0.32 0.26 0.22 0.23 0.26 0.27 0.29 0.28 0.28 0.27 0.25 0.23 0.20 0.19 0.18 0.18 0.17
0.47 0.49 0.57 0.48 0.48 0.37 0.32 0.45 0.52 0.48 0.42 0.45 0.41 0.33 0.25 0.26 0.31 0.33 0.46 0.51 0.49 0.40 0.32 0.24 0.23 0.23 0.24 0.24 0.21 0.21 0.20 0.19 0.17 0.16 0.14 0.11 0.10 0.09
0.61 0.66 0.62 0.62 0.43 0.32 0.27 0.30 0.37 0.39 0.41 0.45 0.48 0.41 0.32 0.30 0.27 0.25 0.29 0.35 0.42 0.45 0.39 0.30 0.25 0.23 0.21 0.19 0.19 0.18 0.17 0.15 0.13 0.13 0.14 0.13 0.12 0.10
0.61 0.59 0.52 0.52 0.36 0.26 0.19 0.22 0.22 0.22 0.30 0.42 0.45 0.43 0.42 0.41 0.35 0.31 0.28 0.27 0.29 0.36 0.37 0.30 0.25 0.21 0.18 0.15 0.15 0.17 0.16 0.14 0.11 0.10 0.09 0.10 0.10 0.11
0.39 0.42 0.40 0.32 0.25 0.19 0.16 0.18 0.19 0.20 0.25 0.30 0.36 0.38 0.38 0.39 0.38 0.36 0.32 0.28 0.24 0.21 0.19 0.21 0.23 0.23 0.21 0.17 0.14 0.17 0.19 0.16 0.13 0.11 0.10 0.09 0.09 0.10
0.31 0.29 0.25 0.21 0.20 0.20 0.19 0.17 0.18 0.23 0.27 0.28 0.31 0.34 0.36 0.36 0.36 0.36 0.38 0.39 0.39 0.36 0.32 0.29 0.28 0.29 0.29 0.28 0.24 0.20 0.22 0.22 0.19 0.18 0.16 0.14 0.14 0.14
0.40 0.32 0.26 0.24 0.22 0.24 0.26 0.23 0.23 0.27 0.30 0.29 0.29 0.29 0.29 0.33 0.35 0.32 0.31 0.34 0.36 0.36 0.37 0.37 0.36 0.35 0.35 0.35 0.37 0.36 0.36 0.34 0.32 0.29 0.25 0.20 0.18 0.18
0.41 0.44 0.45 0.48 0.47 0.44 0.40 0.32 0.27 0.26 0.29 0.33 0.32 0.28 0.29 0.29 0.33 0.34 0.31 0.32 0.31 0.30 0.27 0.27 0.30 0.33 0.35 0.34 0.29 0.31 0.37 0.37 0.38 0.37 0.32 0.27 0.22 0.23
0.39 0.52 0.53 0.50 0.45 0.40 0.36 0.31 0.24 0.20 0.19 0.23 0.31 0.35 0.33 0.33 0.36 0.38 0.35 0.31 0.29 0.29 0.28 0.24 0.22 0.24 0.27 0.27 0.27 0.24 0.26 0.30 0.31 0.31 0.30 0.29 0.26 0.27
0.35 0.42 0.41 0.38 0.32 0.23 0.17 0.13 0.13 0.11 0.10 0.10 0.12 0.19 0.30 0.38 0.44 0.47 0.49 0.50 0.47 0.43 0.38 0.31 0.25 0.20 0.20 0.20 0.19 0.17 0.16 0.20 0.25 0.24 0.23 0.24 0.23 0.23
0.16 0.16 0.16 0.16 0.14 0.11 0.08 0.05 0.04 0.04 0.04 0.04 0.05 0.07 0.13 0.25 0.38 0.47 0.51 0.54 0.53 0.53 0.50 0.46 0.41 0.39 0.31 0.29 0.26 0.20 0.17 0.16 0.16 0.15 0.15 0.16 0.16 0.16
0.07 0.07 0.06 0.06 0.06 0.05 0.05 0.04 0.04 0.03 0.04 0.05 0.08 0.12 0.17 0.19 0.22 0.31 0.41 0.45 0.43 0.40 0.41 0.43 0.44 0.43 0.39 0.37 0.35 0.28 0.22 0.19 0.20 0.21 0.17 0.16 0.14 0.13
0.06 0.05 0.05 0.04 0.03 0.04 0.04 0.04 0.03 0.03 0.03 0.03 0.06 0.12 0.18 0.24 0.25 0.24 0.25 0.29 0.33 0.36 0.38 0.38 0.39 0.38 0.39 0.41 0.42 0.38 0.32 0.27 0.26 0.28 0.30 0.37 0.33 0.22

GEFSNE_prec_meanprecacc_060.txt.gz
Total_Precipitation_Accumulation
1.13 1.16 1.09 1.03 0.96 0.85 0.79 0.78 0.79 0.72 0.64 0.46 0.26 0.15 0.15 0.12 0.10 0.06 0.04 0.05 0.04 0.03 0.02 0.01 0.01 0.00 0.01 0.01 0.01 0.01 0.01 0.02 0.03 0.05 0.11 0.19 0.25 0.28
1.11 1.16 1.17 1.15 1.13 1.02 0.88 0.82 0.75 0.75 0.69 0.56 0.38 0.22 0.24 0.21 0.17 0.10 0.07 0.07 0.06 0.06 0.03 0.03 0.01 0.00 0.00 0.00 0.00 0.00 0.00 0.01 0.01 0.04 0.16 0.38 0.47 0.44
0.94 1.01 1.14 1.19 1.23 1.17 1.09 0.96 0.85 0.83 0.79 0.71 0.51 0.31 0.28 0.29 0.25 0.16 0.10 0.07 0.07 0.06 0.05 0.03 0.02 0.01 0.00 0.00 0.00 0.00 0.00 0.00 0.01 0.03 0.09 0.24 0.53 0.62
0.78 0.80 0.90 1.00 1.10 1.17 1.17 1.13 1.09 0.97 0.93 0.90 0.75 0.51 0.36 0.32 0.26 0.22 0.17 0.12 0.09 0.10 0.10 0.08 0.04 0.02 0.01 0.01 0.01 0.01 0.01 0.01 0.01 0.02 0.04 0.07 0.14 0.28
0.60 0.62 0.65 0.74 0.87 1.00 1.08 1.11 1.13 1.12 1.08 1.00 0.88 0.73 0.50 0.37 0.31 0.25 0.20 0.18 0.14 0.13 0.14 0.14 0.11 0.08 0.08 0.06 0.04 0.03 0.02 0.02 0.02 0.02 0.02 0.02 0.03 0.05
0.45 0.43 0.44 0.49 0.58 0.71 0.86 1.00 1.09 1.14 1.17 1.14 0.97 0.76 0.63 0.53 0.38 0.31 0.30 0.27 0.24 0.22 0.18 0.18 0.19 0.16 0.14 0.11 0.10 0.08 0.07 0.06 0.04 0.03 0.03 0.02 0.02 0.02
0.38 0.30 0.28 0.32 0.35 0.41 0.48 0.66 0.86 0.99 1.04 1.07 0.99 0.81 0.66 0.57 0.46 0.40 0.38 0.38 0.33 0.31 0.30 0.26 0.24 0.22 0.21 0.21 0.18 0.15 0.13 0.12 0.10 0.09 0.07 0.06 0.05 0.04
0.33 0.28 0.27 0.29 0.27 0.23 0.24 0.33 0.51 0.68 0.82 0.93 0.97 0.86 0.73 0.64 0.58 0.50 0.41 0.35 0.30 0.27 0.27 0.30 0.29 0.28 0.30 0.29 0.30 0.28 0.25 0.22 0.19 0.16 0.14 0.12 0.11 0.11
0.37 0.37 0.32 0.29 0.33 0.26 0.22 0.23 0.26 0.30 0.42 0.62 0.78 0.83 0.90 0.77 0.61 0.49 0.41 0.36 0.36 0.36 0.32 0.28 0.28 0.29 0.31 0.32 0.34 0.35 0.35 0.31 0.27 0.25 0.24 0.22 0.22 0.22
0.42 0.43 0.45 0.39 0.36 0.36 0.34 0.38 0.36 0.30 0.36 0.29 0.40 0.67 0.74 0.72 0.64 0.56 0.50 0.43 0.37 0.33 0.31 0.32 0.33 0.32 0.29 0.28 0.31 0.30 0.30 0.30 0.32 0.34 0.34 0.34 0.33 0.31
0.43 0.47 0.48 0.42 0.46 0.45 0.48 0.58 0.56 0.47 0.57 0.56 0.50 0.51 0.52 0.49 0.49 0.52 0.52 0.46 0.40 0.33 0.26 0.23 0.24 0.27 0.29 0.31 0.29 0.29 0.28 0.27 0.25 0.24 0.22 0.22 0.22 0.22
0.50 0.52 0.61 0.54 0.52 0.42 0.39 0.52 0.59 0.52 0.44 0.46 0.42 0.34 0.26 0.27 0.32 0.34 0.47 0.54 0.52 0.42 0.34 0.26 0.25 0.25 0.26 0.25 0.23 0.23 0.22 0.21 0.20 0.19 0.18 0.15 0.13 0.12
0.63 0.67 0.64 0.67 0.47 0.36 0.34 0.35 0.42 0.42 0.43 0.47 0.49 0.42 0.34 0.32 0.28 0.26 0.30 0.36 0.44 0.46 0.39 0.31 0.27 0.26 0.23 0.20 0.21 0.22 0.21 0.18 0.16 0.16 0.16 0.15 0.14 0.12
0.62 0.61 0.55 0.56 0.41 0.30 0.23 0.26 0.26 0.24 0.31 0.44 0.47 0.45 0.43 0.42 0.36 0.31 0.28 0.27 0.30 0.36 0.37 0.31 0.27 0.23 0.20 0.17 0.18 0.21 0.20 0.17 0.14 0.12 0.11 0.12 0.12 0.12
0.40 0.45 0.43 0.36 0.29 0.21 0.20 0.22 0.21 0.23 0.28 0.32 0.38 0.39 0.38 0.39 0.38 0.36 0.32 0.28 0.24 0.21 0.19 0.21 0.23 0.24 0.23 0.20 0.18 0.20 0.22 0.20 0.16 0.13 0.12 0.11 0.10 0.11
0.31 0.31 0.28 0.24 0.23 0.22 0.21 0.20 0.20 0.26 0.29 0.30 0.32 0.35 0.37 0.37 0.37 0.37 0.39 0.39 0.39 0.36 0.32 0.29 0.28 0.29 0.30 0.29 0.25 0.21 0.23 0.24 0.21 0.19 0.17 0.15 0.14 0.15
0.41 0.34 0.28 0.26 0.24 0.27 0.27 0.24 0.25 0.29 0.31 0.30 0.31 0.31 0.31 0.34 0.36 0.33 0.32 0.35 0.37 0.36 0.37 0.37 0.36 0.35 0.35 0.36 0.37 0.36 0.36 0.35 0.33 0.30 0.25 0.21 0.19 0.18
0.42 0.45 0.46 0.50 0.49 0.46 0.41 0.32 0.27 0.26 0.29 0.34 0.32 0.30 0.30 0.30 0.33 0.34 0.32 0.33 0.32 0.31 0.28 0.27 0.30 0.34 0.35 0.34 0.29 0.31 0.37 0.38 0.39 0.39 0.34 0.27 0.23 0.24
0.40 0.53 0.53 0.51 0.45 0.40 0.36 0.31 0.24 0.20 0.19 0.23 0.31 0.35 0.33 0.33 0.36 0.38 0.36 0.32 0.30 0.30 0.29 0.24 0.22 0.25 0.27 0.27 0.27 0.24 0.26 0.30 0.32 0.31 0.31 0.29 0.27 0.28
0.35 0.42 0.41 0.38 0.32 0.23 0.17 0.13 0.13 0.11 0.10 0.10 0.12 0.19 0.30 0.38 0.45 0.47 0.50 0.50 0.47 0.43 0.38 0.31 0.25 0.20 0.20 0.20 0.19 0.17 0.16 0.20 0.25 0.25 0.23 0.24 0.23 0.24
0.16 0.16 0.16 0.16 0.14 0.11 0.08 0.05 0.04 0.04 0.04 0.04 0.05 0.07 0.13 0.25 0.38 0.47 0.51 0.55 0.53 0.53 0.50 0.46 0.41 0.39 0.31 0.29 0.26 0.20 0.17 0.16 0.16 0.15 0.15 0.16 0.16 0.16
0.07 0.07 0.06 0.06 0.06 0.05 0.05 0.04 0.04 0.03 0.04 0.05 0.08 0.12 0.17 0.19 0.22 0.31 0.41 0.45 0.43 0.41 0.41 0.43 0.44 0.43 0.39 0.37 0.35 0.28 0.22 0.19 0.20 0.21 0.17 0.16 0.14 0.13
0.06 0.05 0.05 0.04 0.03 0.04 0.04 0.04 0.03 0.03 0.03 0.03 0.06 0.12 0.18 0.24 0.25 0.24 0.25 0.29 0.33 0.36 0.38 0.38 0.39 0.38 0.39 0.41 0.42 0.38 0.32 0.27 0.26 0.28 0.30 0.37 0.33 0.22

GEFSNE_prec_meanprecacc_066.txt.gz
Total_Precipitation_Accumulation
1.29 1.31 1.25 1.17 1.09 0.97 0.90 0.90 0.93 0.85 0.77 0.56 0.36 0.22 0.21 0.19 0.17 0.11 0.08 0.10 0.08 0.04 0.03 0.02 0.02 0.02 0.03 0.03 0.03 0.04 0.04 0.04 0.05 0.07 0.13 0.20 0.25 0.28
1.27 1.33 1.33 1.30 1.28 1.16 1.01 0.93 0.86 0.85 0.80 0.65 0.45 0.28 0.28 0.25 0.22 0.12 0.10 0.13 0.10 0.09 0.05 0.05 0.04 0.04 0.03 0.03 0.02 0.02 0.02 0.01 0.02 0.05 0.17 0.39 0.48 0.44
1.10 1.16 1.28 1.34 1.39 1.34 1.25 1.09 0.96 0.92 0.88 0.78 0.58 0.35 0.32 0.32 0.29 0.21 0.14 0.12 0.11 0.09 0.08 0.07 0.06 0.06 0.05 0.05 0.04 0.03 0.02 0.01 0.02 0.04 0.10 0.25 0.53 0.62
0.92 0.92 1.00 1.09 1.19 1.28 1.28 1.23 1.18 1.05 1.01 0.98 0.83 0.58 0.42 0.37 0.31 0.29 0.25 0.20 0.18 0.16 0.14 0.11 0.08 0.06 0.05 0.05 0.04 0.03 0.02 0.02 0.02 0.03 0.05 0.08 0.15 0.29
0.73 0.72 0.74 0.84 0.96 1.08 1.16 1.19 1.23 1.21 1.17 1.09 0.99 0.83 0.59 0.45 0.39 0.34 0.31 0.32 0.24 0.19 0.18 0.17 0.14 0.10 0.09 0.08 0.05 0.04 0.03 0.02 0.02 0.02 0.02 0.03 0.04 0.07
0.54 0.52 0.54 0.59 0.67 0.79 0.95 1.10 1.20 1.24 1.26 1.24 1.08 0.87 0.73 0.62 0.48 0.42 0.44 0.42 0.36 0.29 0.23 0.22 0.22 0.18 0.15 0.12 0.11 0.09 0.07 0.06 0.05 0.04 0.03 0.03 0.03 0.03
0.45 0.38 0.36 0.40 0.42 0.47 0.55 0.76 0.96 1.10 1.14 1.19 1.11 0.92 0.75 0.65 0.55 0.51 0.50 0.51 0.47 0.44 0.40 0.33 0.30 0.27 0.25 0.23 0.19 0.16 0.13 0.12 0.11 0.09 0.08 0.07 0.07 0.06
0.40 0.37 0.34 0.36 0.31 0.26 0.28 0.39 0.59 0.78 0.92 1.03 1.07 0.95 0.81 0.71 0.67 0.61 0.53 0.47 0.40 0.37 0.36 0.36 0.35 0.33 0.32 0.31 0.31 0.29 0.26 0.23 0.20 0.17 0.15 0.14 0.14 0.14
0.45 0.47 0.42 0.36 0.40 0.31 0.26 0.27 0.31 0.38 0.52 0.71 0.88 0.91 0.97 0.86 0.70 0.58 0.51 0.47 0.43 0.41 0.37 0.33 0.31 0.30 0.32 0.33 0.35 0.35 0.35 0.32 0.28 0.27 0.25 0.24 0.25 0.24
0.50 0.54 0.56 0.50 0.45 0.46 0.43 0.45 0.42 0.35 0.41 0.35 0.45 0.72 0.79 0.77 0.70 0.63 0.57 0.49 0.41 0.36 0.35 0.35 0.35 0.34 0.29 0.28 0.31 0.30 0.30 0.30 0.32 0.34 0.35 0.36 0.35 0.33
0.49 0.55 0.58 0.52 0.54 0.55 0.61 0.69 0.63 0.51 0.61 0.61 0.54 0.54 0.55 0.52 0.53 0.56 0.57 0.51 0.44 0.37 0.29 0.25 0.27 0.29 0.30 0.32 0.30 0.29 0.29 0.27 0.26 0.24 0.23 0.23 0.24 0.25
0.56 0.59 0.71 0.62 0.58 0.52 0.53 0.64 0.67 0.57 0.47 0.49 0.44 0.36 0.28 0.29 0.34 0.39 0.54 0.62 0.58 0.47 0.37 0.29 0.29 0.29 0.29 0.27 0.24 0.25 0.24 0.23 0.21 0.20 0.19 0.16 0.14 0.14
0.70 0.74 0.68 0.71 0.52 0.44 0.45 0.43 0.49 0.49 0.49 0.52 0.54 0.46 0.36 0.33 0.30 0.27 0.32 0.42 0.52 0.51 0.42 0.34 0.31 0.29 0.26 0.22 0.22 0.24 0.24 0.21 0.18 0.17 0.16 0.16 0.15 0.14
0.66 0.64 0.57 0.59 0.44 0.34 0.30 0.32 0.31 0.31 0.38 0.50 0.53 0.50 0.47 0.44 0.38 0.32 0.29 0.27 0.31 0.37 0.38 0.33 0.30 0.27 0.23 0.20 0.21 0.24 0.23 0.20 0.16 0.13 0.12 0.13 0.14 0.14
0.41 0.46 0.44 0.38 0.32 0.25 0.24 0.27 0.26 0.28 0.33 0.38 0.43 0.43 0.40 0.40 0.39 0.37 0.33 0.28 0.24 0.21 0.19 0.21 0.25 0.27 0.26 0.23 0.21 0.23 0.25 0.22 0.18 0.16 0.15 0.13 0.12 0.13
0.32 0.32 0.29 0.25 0.25 0.24 0.24 0.24 0.25 0.29 0.33 0.33 0.34 0.38 0.38 0.38 0.38 0.39 0.40 0.40 0.39 0.36 0.32 0.29 0.29 0.30 0.31 0.31 0.27 0.23 0.25 0.26 0.23 0.21 0.19 0.17 0.15 0.15
0.42 0.36 0.30 0.28 0.27 0.29 0.30 0.26 0.27 0.30 0.33 0.32 0.33 0.34 0.33 0.36 0.37 0.35 0.34 0.37 0.38 0.37 0.37 0.37 0.36 0.35 0.35 0.36 0.37 0.36 0.37 0.37 0.35 0.32 0.26 0.21 0.19 0.19
0.43 0.48 0.48 0.51 0.50 0.48 0.45 0.35 0.28 0.28 0.31 0.35 0.34 0.31 0.32 0.32 0.34 0.36 0.34 0.35 0.33 0.31 0.28 0.27 0.30 0.34 0.35 0.34 0.29 0.31 0.38 0.39 0.41 0.41 0.34 0.28 0.23 0.24
0.41 0.55 0.55 0.53 0.48 0.43 0.39 0.32 0.26 0.20 0.20 0.24 0.31 0.35 0.34 0.34 0.37 0.39 0.37 0.33 0.30 0.30 0.29 0.25 0.23 0.25 0.28 0.27 0.27 0.25 0.26 0.31 0.32 0.32 0.31 0.29 0.27 0.28
0.37 0.44 0.43 0.40 0.34 0.25 0.18 0.14 0.13 0.12 0.10 0.11 0.12 0.19 0.31 0.38 0.45 0.47 0.50 0.50 0.47 0.43 0.38 0.31 0.25 0.21 0.20 0.20 0.19 0.17 0.16 0.20 0.25 0.25 0.23 0.24 0.23 0.24
0.17 0.17 0.16 0.17 0.15 0.12 0.08 0.06 0.05 0.05 0.04 0.04 0.05 0.07 0.14 0.25 0.38 0.47 0.51 0.55 0.54 0.53 0.51 0.46 0.41 0.39 0.31 0.29 0.26 0.20 0.17 0.16 0.16 0.15 0.15 0.16 0.16 0.16
0.07 0.07 0.06 0.06 0.06 0.05 0.05 0.04 0.04 0.04 0.04 0.05 0.08 0.12 0.17 0.19 0.22 0.31 0.41 0.45 0.43 0.41 0.41 0.43 0.44 0.43 0.39 0.38 0.35 0.28 0.22 0.19 0.20 0.21 0.18 0.16 0.14 0.13
0.06 0.05 0.05 0.04 0.03 0.04 0.04 0.04 0.03 0.03 0.03 0.03 0.06 0.12 0.18 0.24 0.25 0.24 0.25 0.29 0.33 0.36 0.38 0.39 0.39 0.38 0.39 0.41 0.42 0.39 0.32 0.27 0.26 0.28 0.30 0.37 0.33 0.22

GEFSNE_prec_meanprecacc_072.txt.gz
Total_Precipitation_Accumulation
1.47 1.49 1.40 1.30 1.20 1.07 1.00 0.98 0.99 0.90 0.81 0.61 0.45 0.35 0.34 0.30 0.28 0.22 0.19 0.19 0.15 0.09 0.06 0.05 0.06 0.06 0.06 0.05 0.05 0.05 0.06 0.06 0.08 0.11 0.17 0.25 0.31 0.33
1.46 1.52 1.53 1.47 1.42 1.30 1.15 1.06 0.95 0.92 0.85 0.69 0.50 0.36 0.39 0.35 0.32 0.21 0.17 0.19 0.16 0.14 0.11 0.09 0.07 0.08 0.09 0.07 0.05 0.04 0.03 0.03 0.04 0.07 0.20 0.42 0.52 0.49
1.33 1.38 1.48 1.53 1.56 1.50 1.41 1.24 1.08 1.02 0.96 0.85 0.64 0.41 0.40 0.41 0.37 0.28 0.19 0.16 0.16 0.15 0.13 0.12 0.11 0.11 0.11 0.10 0.08 0.06 0.05 0.04 0.04 0.06 0.12 0.27 0.55 0.65
1.12 1.11 1.19 1.27 1.36 1.44 1.43 1.36 1.29 1.16 1.11 1.08 0.91 0.65 0.46 0.42 0.38 0.36 0.30 0.25 0.24 0.22 0.21 0.18 0.15 0.13 0.12 0.11 0.09 0.07 0.05 0.04 0.03 0.05 0.07 0.10 0.18 0.32
0.87 0.85 0.86 0.96 1.10 1.21 1.28 1.29 1.31 1.30 1.25 1.16 1.05 0.89 0.63 0.49 0.44 0.41 0.37 0.40 0.32 0.27 0.26 0.23 0.21 0.17 0.15 0.13 0.10 0.08 0.07 0.06 0.05 0.04 0.04 0.04 0.06 0.10
0.65 0.64 0.65 0.67 0.75 0.88 1.04 1.19 1.28 1.31 1.32 1.30 1.13 0.91 0.77 0.66 0.53 0.48 0.51 0.50 0.45 0.36 0.31 0.29 0.29 0.24 0.20 0.16 0.15 0.13 0.11 0.10 0.09 0.06 0.04 0.04 0.04 0.05
0.52 0.45 0.44 0.47 0.48 0.53 0.60 0.81 1.02 1.15 1.19 1.22 1.14 0.95 0.77 0.69 0.60 0.57 0.57 0.59 0.56 0.52 0.48 0.39 0.35 0.31 0.28 0.26 0.21 0.18 0.15 0.14 0.12 0.11 0.09 0.08 0.08 0.08
0.44 0.41 0.40 0.41 0.36 0.30 0.31 0.43 0.63 0.82 0.95 1.06 1.09 0.97 0.84 0.75 0.72 0.68 0.60 0.54 0.50 0.46 0.43 0.43 0.41 0.38 0.36 0.35 0.35 0.32 0.28 0.24 0.21 0.18 0.17 0.17 0.17 0.16
0.50 0.52 0.47 0.42 0.47 0.36 0.30 0.30 0.34 0.41 0.55 0.73 0.90 0.94 0.99 0.89 0.74 0.64 0.58 0.56 0.52 0.48 0.43 0.37 0.34 0.33 0.34 0.35 0.37 0.37 0.36 0.33 0.29 0.27 0.26 0.26 0.26 0.26
0.55 0.60 0.63 0.59 0.53 0.53 0.47 0.49 0.46 0.39 0.45 0.38 0.48 0.75 0.83 0.81 0.74 0.68 0.64 0.57 0.48 0.43 0.39 0.38 0.37 0.35 0.30 0.30 0.33 0.32 0.31 0.31 0.33 0.34 0.36 0.37 0.36 0.35
0.54 0.61 0.65 0.60 0.62 0.61 0.66 0.73 0.66 0.53 0.63 0.64 0.57 0.58 0.59 0.56 0.56 0.60 0.62 0.55 0.48 0.43 0.32 0.28 0.29 0.31 0.31 0.33 0.30 0.30 0.29 0.28 0.27 0.25 0.23 0.24 0.25 0.27
0.60 0.64 0.79 0.70 0.66 0.59 0.58 0.69 0.71 0.60 0.49 0.51 0.47 0.38 0.30 0.31 0.36 0.42 0.57 0.64 0.60 0.49 0.38 0.30 0.31 0.30 0.30 0.27 0.24 0.25 0.25 0.24 0.22 0.21 0.20 0.17 0.14 0.14
0.74 0.79 0.74 0.78 0.59 0.52 0.50 0.47 0.53 0.53 0.52 0.56 0.57 0.48 0.39 0.35 0.32 0.29 0.34 0.44 0.54 0.52 0.44 0.35 0.32 0.30 0.27 0.23 0.23 0.24 0.25 0.23 0.19 0.17 0.17 0.17 0.16 0.14
0.68 0.67 0.62 0.67 0.50 0.41 0.35 0.37 0.36 0.35 0.42 0.54 0.55 0.52 0.48 0.45 0.40 0.33 0.30 0.29 0.33 0.39 0.40 0.34 0.31 0.27 0.24 0.20 0.21 0.25 0.24 0.21 0.17 0.15 0.13 0.15 0.15 0.15
0.43 0.50 0.50 0.45 0.39 0.31 0.32 0.33 0.31 0.32 0.37 0.40 0.44 0.44 0.41 0.41 0.41 0.38 0.34 0.29 0.25 0.22 0.20 0.22 0.25 0.27 0.27 0.23 0.21 0.23 0.25 0.22 0.19 0.17 0.16 0.14 0.13 0.14
0.34 0.35 0.33 0.31 0.33 0.32 0.31 0.32 0.32 0.34 0.35 0.34 0.35 0.38 0.38 0.38 0.39 0.39 0.41 0.40 0.39 0.36 0.32 0.29 0.29 0.30 0.31 0.31 0.27 0.23 0.25 0.26 0.24 0.22 0.20 0.17 0.16 0.16
0.45 0.38 0.32 0.30 0.31 0.36 0.36 0.31 0.32 0.34 0.34 0.33 0.34 0.34 0.34 0.36 0.37 0.35 0.35 0.37 0.38 0.37 0.37 0.37 0.36 0.35 0.35 0.36 0.37 0.36 0.37 0.37 0.36 0.33 0.27 0.22 0.20 0.19
0.45 0.50 0.50 0.53 0.53 0.52 0.48 0.37 0.31 0.29 0.32 0.36 0.34 0.31 0.32 0.32 0.34 0.36 0.35 0.35 0.33 0.31 0.28 0.27 0.30 0.34 0.35 0.34 0.29 0.31 0.38 0.39 0.42 0.42 0.35 0.28 0.23 0.24
0.42 0.56 0.56 0.54 0.49 0.45 0.41 0.34 0.26 0.21 0.20 0.25 0.32 0.36 0.34 0.34 0.37 0.39 0.37 0.33 0.30 0.30 0.29 0.25 0.23 0.25 0.28 0.27 0.27 0.25 0.26 0.31 0.32 0.32 0.31 0.29 0.27 0.28
0.37 0.44 0.43 0.41 0.34 0.26 0.19 0.14 0.13 0.12 0.10 0.11 0.12 0.19 0.31 0.38 0.45 0.47 0.50 0.50 0.47 0.43 0.38 0.31 0.25 0.21 0.20 0.20 0.19 0.17 0.17 0.20 0.25 0.25 0.23 0.24 0.23 0.24
0.17 0.17 0.17 0.17 0.16 0.12 0.08 0.06 0.05 0.05 0.04 0.04 0.05 0.07 0.14 0.25 0.38 0.47 0.51 0.55 0.54 0.53 0.51 0.46 0.41 0.39 0.31 0.29 0.26 0.20 0.17 0.16 0.16 0.15 0.15 0.16 0.16 0.16
0.07 0.07 0.06 0.06 0.06 0.05 0.05 0.04 0.04 0.04 0.04 0.05 0.08 0.12 0.17 0.19 0.22 0.31 0.41 0.45 0.43 0.41 0.41 0.43 0.44 0.43 0.39 0.38 0.35 0.28 0.22 0.19 0.20 0.21 0.18 0.16 0.14 0.13
0.06 0.05 0.05 0.04 0.03 0.04 0.04 0.04 0.03 0.03 0.03 0.03 0.06 0.12 0.18 0.24 0.25 0.24 0.25 0.29 0.33 0.36 0.38 0.39 0.39 0.38 0.39 0.41 0.42 0.39 0.32 0.27 0.26 0.28 0.30 0.37 0.33 0.22

GEFSNE_prec_meanprecacc_078.txt.gz
Total_Precipitation_Accumulation
1.57 1.63 1.56 1.46 1.37 1.22 1.12 1.08 1.08 0.97 0.85 0.65 0.50 0.42 0.43 0.39 0.38 0.30 0.27 0.29 0.25 0.20 0.18 0.16 0.15 0.14 0.12 0.10 0.09 0.08 0.09 0.09 0.10 0.13 0.19 0.27 0.33 0.36
1.56 1.65 1.67 1.62 1.57 1.46 1.31 1.20 1.07 1.02 0.93 0.75 0.55 0.42 0.47 0.44 0.41 0.30 0.26 0.30 0.26 0.24 0.20 0.19 0.18 0.17 0.16 0.13 0.08 0.06 0.05 0.04 0.05 0.09 0.22 0.44 0.54 0.51
1.42 1.47 1.57 1.63 1.68 1.65 1.58 1.43 1.26 1.17 1.08 0.94 0.71 0.48 0.48 0.50 0.45 0.34 0.27 0.25 0.24 0.23 0.21 0.20 0.18 0.18 0.19 0.19 0.15 0.10 0.07 0.05 0.04 0.07 0.13 0.28 0.57 0.67
1.23 1.21 1.28 1.36 1.46 1.56 1.59 1.53 1.44 1.29 1.22 1.17 1.00 0.73 0.55 0.51 0.47 0.44 0.38 0.32 0.30 0.30 0.29 0.26 0.24 0.22 0.21 0.20 0.17 0.14 0.10 0.07 0.06 0.07 0.09 0.13 0.21 0.35
1.00 0.98 0.99 1.07 1.19 1.29 1.38 1.40 1.44 1.42 1.36 1.28 1.18 1.01 0.74 0.59 0.54 0.50 0.46 0.50 0.42 0.37 0.36 0.33 0.31 0.28 0.27 0.25 0.22 0.18 0.15 0.13 0.11 0.08 0.07 0.07 0.09 0.14
0.75 0.77 0.80 0.80 0.85 0.97 1.13 1.29 1.40 1.44 1.44 1.41 1.26 1.05 0.91 0.78 0.64 0.58 0.61 0.60 0.56 0.48 0.43 0.40 0.40 0.35 0.31 0.27 0.24 0.22 0.20 0.19 0.18 0.15 0.11 0.09 0.07 0.07
0.60 0.52 0.54 0.59 0.58 0.61 0.68 0.93 1.13 1.26 1.31 1.34 1.26 1.06 0.89 0.81 0.70 0.67 0.67 0.68 0.65 0.62 0.58 0.48 0.44 0.40 0.37 0.35 0.28 0.23 0.20 0.20 0.20 0.18 0.16 0.15 0.14 0.12
0.52 0.47 0.47 0.50 0.44 0.37 0.38 0.54 0.77 0.93 1.05 1.15 1.18 1.06 0.93 0.83 0.80 0.77 0.70 0.63 0.60 0.56 0.50 0.51 0.48 0.44 0.41 0.40 0.42 0.38 0.33 0.29 0.25 0.23 0.22 0.22 0.22 0.21
0.55 0.58 0.54 0.50 0.56 0.44 0.38 0.39 0.44 0.52 0.64 0.81 0.98 1.01 1.07 0.96 0.80 0.71 0.65 0.64 0.62 0.58 0.49 0.44 0.40 0.39 0.39 0.40 0.43 0.43 0.42 0.38 0.34 0.30 0.29 0.28 0.29 0.29
0.62 0.66 0.67 0.64 0.60 0.62 0.56 0.57 0.52 0.45 0.51 0.42 0.52 0.80 0.89 0.88 0.80 0.74 0.71 0.63 0.54 0.51 0.46 0.43 0.42 0.39 0.34 0.33 0.35 0.35 0.34 0.34 0.36 0.37 0.38 0.38 0.37 0.36
0.60 0.67 0.70 0.64 0.68 0.70 0.73 0.79 0.72 0.58 0.69 0.69 0.61 0.62 0.65 0.64 0.63 0.66 0.68 0.62 0.55 0.50 0.38 0.32 0.32 0.34 0.33 0.34 0.32 0.33 0.31 0.29 0.28 0.26 0.24 0.24 0.25 0.28
0.64 0.69 0.83 0.74 0.70 0.67 0.65 0.74 0.76 0.64 0.53 0.54 0.50 0.42 0.35 0.38 0.45 0.49 0.64 0.71 0.68 0.57 0.44 0.34 0.34 0.32 0.32 0.29 0.25 0.26 0.26 0.25 0.23 0.21 0.21 0.17 0.15 0.15
0.78 0.84 0.79 0.82 0.62 0.57 0.55 0.51 0.58 0.57 0.55 0.58 0.60 0.52 0.43 0.41 0.38 0.34 0.39 0.50 0.60 0.57 0.47 0.38 0.34 0.32 0.28 0.23 0.23 0.24 0.26 0.23 0.19 0.18 0.18 0.17 0.16 0.14
0.70 0.71 0.68 0.73 0.55 0.45 0.39 0.41 0.42 0.40 0.46 0.57 0.59 0.55 0.52 0.50 0.44 0.37 0.33 0.33 0.38 0.44 0.43 0.37 0.33 0.28 0.25 0.21 0.22 0.25 0.24 0.21 0.17 0.15 0.13 0.16 0.16 0.16
0.46 0.54 0.55 0.50 0.43 0.35 0.36 0.37 0.36 0.37 0.41 0.44 0.47 0.46 0.44 0.44 0.44 0.41 0.36 0.31 0.27 0.24 0.22 0.24 0.28 0.29 0.27 0.24 0.21 0.23 0.25 0.22 0.19 0.18 0.16 0.14 0.13 0.14
0.37 0.38 0.37 0.35 0.35 0.35 0.35 0.34 0.34 0.37 0.39 0.38 0.38 0.40 0.40 0.40 0.41 0.41 0.42 0.41 0.40 0.37 0.33 0.30 0.29 0.31 0.32 0.31 0.27 0.23 0.25 0.27 0.24 0.22 0.20 0.17 0.16 0.16
0.47 0.40 0.35 0.33 0.34 0.40 0.40 0.35 0.35 0.37 0.39 0.36 0.36 0.36 0.35 0.37 0.38 0.35 0.35 0.37 0.38 0.37 0.38 0.38 0.36 0.35 0.35 0.36 0.38 0.36 0.37 0.37 0.36 0.33 0.27 0.23 0.20 0.19
0.47 0.51 0.52 0.56 0.57 0.56 0.51 0.40 0.33 0.30 0.34 0.38 0.36 0.33 0.33 0.33 0.35 0.36 0.35 0.35 0.33 0.31 0.28 0.28 0.30 0.34 0.35 0.34 0.29 0.31 0.38 0.39 0.42 0.42 0.36 0.29 0.24 0.24
0.43 0.57 0.57 0.55 0.50 0.46 0.42 0.35 0.27 0.21 0.21 0.26 0.33 0.37 0.35 0.35 0.37 0.40 0.38 0.33 0.30 0.30 0.29 0.25 0.23 0.25 0.28 0.27 0.27 0.25 0.26 0.31 0.32 0.32 0.31 0.29 0.27 0.28
0.37 0.45 0.43 0.41 0.34 0.26 0.19 0.14 0.13 0.12 0.10 0.11 0.13 0.20 0.31 0.38 0.45 0.47 0.50 0.50 0.47 0.43 0.38 0.31 0.25 0.21 0.20 0.20 0.19 0.17 0.17 0.20 0.25 0.25 0.23 0.24 0.23 0.24
0.17 0.17 0.17 0.17 0.16 0.12 0.08 0.06 0.05 0.05 0.04 0.04 0.05 0.07 0.14 0.25 0.38 0.47 0.51 0.55 0.54 0.53 0.51 0.46 0.41 0.39 0.31 0.29 0.26 0.20 0.17 0.16 0.16 0.15 0.15 0.16 0.16 0.16
0.07 0.07 0.06 0.06 0.06 0.05 0.05 0.04 0.04 0.04 0.04 0.05 0.08 0.12 0.17 0.19 0.22 0.31 0.41 0.45 0.43 0.41 0.41 0.43 0.44 0.43 0.39 0.38 0.35 0.28 0.22 0.19 0.20 0.22 0.18 0.16 0.14 0.13
0.06 0.05 0.05 0.04 0.03 0.04 0.04 0.04 0.03 0.03 0.03 0.03 0.06 0.12 0.18 0.24 0.25 0.24 0.25 0.29 0.33 0.36 0.38 0.39 0.39 0.38 0.39 0.41 0.42 0.39 0.32 0.27 0.26 0.28 0.30 0.37 0.33 0.22

GEFSNE_prec_meanprecacc_084.txt.gz
Total_Precipitation_Accumulation
1.66 1.71 1.65 1.58 1.50 1.35 1.26 1.25 1.26 1.10 0.94 0.71 0.54 0.46 0.47 0.44 0.46 0.36 0.32 0.34 0.28 0.23 0.20 0.18 0.18 0.18 0.16 0.14 0.12 0.11 0.12 0.11 0.12 0.16 0.21 0.28 0.34 0.37
1.64 1.72 1.73 1.74 1.72 1.60 1.45 1.35 1.22 1.17 1.07 0.86 0.63 0.47 0.52 0.49 0.49 0.35 0.32 0.38 0.33 0.30 0.25 0.23 0.21 0.21 0.20 0.15 0.11 0.08 0.06 0.06 0.07 0.11 0.23 0.45 0.55 0.53
1.48 1.53 1.63 1.72 1.81 1.79 1.74 1.58 1.41 1.32 1.24 1.06 0.81 0.56 0.54 0.56 0.52 0.40 0.34 0.31 0.31 0.31 0.28 0.26 0.24 0.22 0.23 0.22 0.18 0.14 0.10 0.08 0.07 0.09 0.15 0.30 0.59 0.69
1.28 1.26 1.34 1.43 1.54 1.66 1.72 1.67 1.59 1.44 1.36 1.33 1.14 0.83 0.63 0.58 0.55 0.53 0.46 0.40 0.39 0.42 0.38 0.35 0.31 0.27 0.26 0.24 0.22 0.19 0.15 0.12 0.09 0.09 0.11 0.14 0.22 0.37
1.06 1.04 1.06 1.13 1.24 1.35 1.43 1.49 1.55 1.56 1.50 1.41 1.31 1.13 0.86 0.71 0.66 0.62 0.58 0.61 0.51 0.47 0.46 0.43 0.40 0.37 0.36 0.33 0.29 0.25 0.20 0.17 0.15 0.12 0.10 0.09 0.11 0.16
0.81 0.83 0.86 0.86 0.90 1.02 1.18 1.34 1.47 1.54 1.58 1.54 1.38 1.17 1.03 0.93 0.80 0.75 0.78 0.75 0.69 0.60 0.55 0.51 0.51 0.46 0.42 0.37 0.34 0.30 0.27 0.25 0.23 0.20 0.16 0.13 0.10 0.09
0.64 0.56 0.59 0.65 0.64 0.67 0.74 0.99 1.19 1.33 1.43 1.47 1.38 1.17 1.00 0.93 0.84 0.83 0.84 0.85 0.80 0.76 0.71 0.61 0.56 0.51 0.48 0.45 0.38 0.31 0.26 0.25 0.24 0.23 0.21 0.19 0.18 0.16
0.56 0.51 0.51 0.56 0.50 0.43 0.44 0.61 0.86 1.01 1.15 1.27 1.30 1.17 1.03 0.93 0.91 0.89 0.83 0.78 0.75 0.68 0.61 0.64 0.60 0.58 0.55 0.51 0.51 0.46 0.40 0.35 0.30 0.27 0.27 0.27 0.28 0.27
0.61 0.62 0.58 0.55 0.62 0.51 0.43 0.45 0.53 0.64 0.76 0.94 1.10 1.13 1.18 1.08 0.92 0.82 0.78 0.77 0.75 0.72 0.61 0.57 0.54 0.51 0.50 0.49 0.52 0.50 0.48 0.45 0.40 0.36 0.34 0.33 0.33 0.33
0.68 0.72 0.73 0.69 0.65 0.70 0.63 0.65 0.60 0.55 0.63 0.53 0.66 0.95 1.03 1.04 0.96 0.89 0.86 0.78 0.70 0.67 0.59 0.57 0.56 0.50 0.43 0.40 0.42 0.40 0.38 0.38 0.40 0.43 0.44 0.44 0.42 0.39
0.66 0.73 0.75 0.68 0.73 0.77 0.83 0.89 0.82 0.68 0.80 0.81 0.72 0.76 0.80 0.79 0.80 0.81 0.82 0.76 0.69 0.63 0.49 0.42 0.43 0.43 0.42 0.42 0.38 0.37 0.34 0.32 0.31 0.28 0.26 0.27 0.27 0.29
0.68 0.74 0.88 0.78 0.74 0.72 0.73 0.83 0.84 0.73 0.61 0.64 0.60 0.51 0.44 0.48 0.57 0.61 0.75 0.83 0.79 0.67 0.52 0.41 0.42 0.40 0.39 0.35 0.30 0.30 0.29 0.28 0.27 0.24 0.22 0.18 0.15 0.15
0.81 0.86 0.83 0.87 0.67 0.63 0.63 0.61 0.66 0.65 0.62 0.65 0.69 0.61 0.52 0.48 0.47 0.44 0.49 0.62 0.71 0.66 0.54 0.43 0.39 0.37 0.33 0.28 0.27 0.27 0.28 0.26 0.22 0.21 0.20 0.19 0.17 0.15
0.73 0.73 0.70 0.76 0.58 0.49 0.45 0.48 0.51 0.48 0.53 0.65 0.66 0.63 0.61 0.58 0.52 0.45 0.42 0.44 0.50 0.54 0.50 0.43 0.38 0.33 0.29 0.25 0.25 0.27 0.26 0.22 0.18 0.17 0.16 0.18 0.17 0.17
0.49 0.57 0.56 0.53 0.45 0.37 0.40 0.41 0.41 0.42 0.47 0.51 0.54 0.52 0.49 0.50 0.50 0.47 0.43 0.39 0.35 0.30 0.28 0.30 0.35 0.36 0.32 0.27 0.23 0.25 0.26 0.23 0.19 0.18 0.17 0.15 0.14 0.14
0.39 0.39 0.38 0.37 0.37 0.37 0.37 0.37 0.39 0.42 0.44 0.42 0.42 0.45 0.45 0.47 0.47 0.47 0.47 0.47 0.45 0.41 0.36 0.33 0.33 0.36 0.37 0.34 0.29 0.24 0.25 0.27 0.24 0.22 0.20 0.18 0.16 0.16
0.48 0.40 0.36 0.36 0.37 0.42 0.41 0.37 0.38 0.41 0.42 0.39 0.39 0.42 0.40 0.43 0.45 0.41 0.40 0.41 0.42 0.40 0.40 0.39 0.37 0.37 0.37 0.38 0.39 0.38 0.37 0.37 0.36 0.33 0.27 0.23 0.20 0.19
0.47 0.52 0.53 0.57 0.59 0.58 0.53 0.42 0.35 0.34 0.37 0.42 0.41 0.39 0.39 0.38 0.41 0.41 0.38 0.38 0.36 0.33 0.29 0.28 0.31 0.35 0.36 0.35 0.30 0.32 0.38 0.40 0.42 0.42 0.36 0.29 0.24 0.24
0.43 0.57 0.58 0.56 0.51 0.48 0.44 0.37 0.29 0.24 0.24 0.31 0.39 0.43 0.41 0.40 0.43 0.44 0.40 0.34 0.31 0.31 0.29 0.25 0.23 0.26 0.29 0.28 0.27 0.25 0.27 0.31 0.32 0.32 0.31 0.30 0.27 0.28
0.37 0.45 0.44 0.41 0.35 0.27 0.21 0.16 0.14 0.12 0.12 0.15 0.16 0.23 0.35 0.42 0.49 0.50 0.51 0.51 0.48 0.44 0.38 0.32 0.25 0.21 0.20 0.20 0.19 0.17 0.17 0.20 0.25 0.25 0.24 0.24 0.23 0.24
0.17 0.17 0.17 0.17 0.16 0.12 0.09 0.06 0.05 0.05 0.05 0.05 0.06 0.08 0.15 0.26 0.39 0.48 0.52 0.55 0.54 0.53 0.51 0.46 0.41 0.39 0.31 0.29 0.26 0.20 0.17 0.16 0.16 0.15 0.15 0.16 0.16 0.16
0.07 0.07 0.06 0.06 0.06 0.05 0.05 0.04 0.04 0.04 0.04 0.06 0.09 0.13 0.18 0.20 0.23 0.32 0.41 0.45 0.43 0.41 0.42 0.43 0.44 0.43 0.39 0.38 0.35 0.28 0.22 0.19 0.20 0.22 0.18 0.16 0.14 0.13
0.06 0.05 0.05 0.04 0.03 0.04 0.04 0.04 0.03 0.03 0.03 0.04 0.07 0.13 0.19 0.24 0.25 0.24 0.26 0.30 0.33 0.37 0.38 0.39 0.39 0.38 0.39 0.41 0.42 0.39 0.32 0.27 0.26 0.28 0.30 0.37 0.33 0.22

GEFSNE_prec_meanprecacc_090.txt.gz
Total_Precipitation_Accumulation
1.77 1.82 1.76 1.71 1.64 1.49 1.40 1.41 1.45 1.30 1.11 0.87 0.69 0.60 0.61 0.59 0.65 0.46 0.38 0.39 0.31 0.24 0.21 0.19 0.19 0.19 0.19 0.17 0.16 0.15 0.15 0.14 0.14 0.18 0.23 0.30 0.36 0.39
1.74 1.83 1.84 1.85 1.85 1.73 1.57 1.47 1.36 1.32 1.24 1.02 0.77 0.61 0.68 0.65 0.68 0.48 0.43 0.49 0.39 0.33 0.27 0.24 0.22 0.22 0.21 0.17 0.12 0.09 0.08 0.07 0.09 0.13 0.25 0.47 0.57 0.55
1.56 1.63 1.73 1.82 1.93 1.93 1.87 1.71 1.53 1.46 1.37 1.21 0.95 0.69 0.70 0.74 0.68 0.56 0.48 0.40 0.38 0.37 0.31 0.28 0.25 0.23 0.25 0.24 0.20 0.15 0.11 0.09 0.08 0.11 0.18 0.32 0.62 0.71
1.35 1.34 1.42 1.54 1.66 1.79 1.85 1.80 1.75 1.61 1.51 1.47 1.27 0.97 0.76 0.72 0.70 0.69 0.61 0.50 0.48 0.51 0.45 0.39 0.34 0.30 0.28 0.26 0.23 0.20 0.17 0.13 0.11 0.11 0.13 0.17 0.25 0.39
1.12 1.11 1.13 1.23 1.34 1.47 1.56 1.63 1.71 1.73 1.68 1.57 1.44 1.25 0.98 0.85 0.83 0.79 0.73 0.74 0.63 0.60 0.58 0.52 0.48 0.43 0.41 0.37 0.32 0.28 0.24 0.21 0.18 0.15 0.13 0.12 0.14 0.19
0.88 0.91 0.94 0.96 1.01 1.13 1.28 1.46 1.61 1.70 1.74 1.70 1.56 1.31 1.15 1.05 0.96 0.95 0.96 0.93 0.85 0.72 0.69 0.64 0.63 0.55 0.50 0.45 0.40 0.36 0.33 0.32 0.29 0.25 0.20 0.16 0.13 0.11
0.71 0.63 0.65 0.71 0.72 0.74 0.80 1.07 1.30 1.46 1.55 1.61 1.52 1.33 1.13 1.04 0.95 0.97 1.02 1.07 1.02 0.94 0.87 0.74 0.68 0.61 0.57 0.54 0.47 0.40 0.34 0.32 0.31 0.30 0.26 0.24 0.22 0.19
0.62 0.58 0.57 0.61 0.55 0.48 0.49 0.67 0.95 1.11 1.26 1.39 1.42 1.28 1.14 1.04 1.03 1.02 0.98 0.97 0.95 0.84 0.74 0.77 0.72 0.69 0.64 0.60 0.62 0.57 0.49 0.42 0.37 0.32 0.32 0.32 0.32 0.31
0.66 0.68 0.63 0.59 0.67 0.57 0.49 0.51 0.60 0.71 0.85 1.04 1.22 1.25 1.31 1.20 1.04 0.94 0.91 0.90 0.88 0.87 0.77 0.71 0.66 0.64 0.60 0.60 0.64 0.61 0.58 0.53 0.47 0.42 0.39 0.38 0.38 0.38
0.74 0.76 0.78 0.74 0.71 0.77 0.71 0.72 0.68 0.62 0.70 0.62 0.76 1.07 1.18 1.19 1.10 1.03 0.99 0.90 0.83 0.81 0.75 0.75 0.73 0.68 0.57 0.52 0.55 0.51 0.47 0.47 0.48 0.49 0.50 0.49 0.47 0.44
0.72 0.79 0.80 0.73 0.77 0.82 0.91 0.97 0.90 0.76 0.89 0.91 0.81 0.86 0.94 0.95 0.98 0.98 0.98 0.88 0.82 0.78 0.64 0.58 0.58 0.59 0.58 0.55 0.50 0.49 0.44 0.41 0.40 0.37 0.34 0.34 0.34 0.35
0.74 0.79 0.92 0.81 0.77 0.76 0.81 0.91 0.91 0.80 0.70 0.72 0.68 0.59 0.52 0.58 0.71 0.79 0.93 0.98 0.90 0.79 0.64 0.53 0.55 0.51 0.53 0.49 0.41 0.40 0.38 0.36 0.34 0.31 0.29 0.24 0.21 0.19
0.86 0.90 0.86 0.89 0.70 0.66 0.69 0.68 0.73 0.70 0.69 0.74 0.79 0.70 0.60 0.55 0.56 0.57 0.65 0.77 0.82 0.74 0.62 0.51 0.49 0.46 0.41 0.38 0.37 0.37 0.36 0.33 0.28 0.27 0.26 0.24 0.21 0.18
0.77 0.76 0.73 0.77 0.59 0.51 0.48 0.53 0.57 0.55 0.60 0.73 0.75 0.72 0.70 0.66 0.61 0.57 0.56 0.58 0.63 0.65 0.59 0.49 0.46 0.41 0.36 0.32 0.33 0.37 0.34 0.30 0.25 0.22 0.20 0.22 0.21 0.20
0.50 0.58 0.58 0.55 0.48 0.40 0.44 0.47 0.48 0.50 0.57 0.61 0.63 0.61 0.60 0.61 0.60 0.59 0.55 0.51 0.48 0.42 0.38 0.39 0.42 0.43 0.39 0.34 0.30 0.33 0.34 0.30 0.25 0.23 0.22 0.19 0.17 0.17
0.40 0.40 0.39 0.38 0.40 0.40 0.41 0.43 0.47 0.51 0.54 0.53 0.52 0.55 0.54 0.56 0.59 0.56 0.56 0.55 0.56 0.51 0.46 0.43 0.42 0.44 0.44 0.40 0.34 0.29 0.32 0.33 0.30 0.26 0.23 0.20 0.19 0.18
0.49 0.41 0.37 0.37 0.40 0.46 0.47 0.42 0.43 0.46 0.47 0.46 0.47 0.48 0.46 0.50 0.53 0.49 0.48 0.49 0.49 0.46 0.46 0.48 0.46 0.44 0.42 0.43 0.44 0.43 0.43 0.42 0.40 0.38 0.31 0.25 0.22 0.21
0.48 0.54 0.55 0.59 0.61 0.59 0.56 0.46 0.39 0.38 0.41 0.46 0.47 0.46 0.44 0.43 0.47 0.48 0.46 0.45 0.43 0.39 0.34 0.33 0.37 0.40 0.40 0.38 0.33 0.35 0.41 0.42 0.45 0.45 0.38 0.31 0.25 0.25
0.44 0.59 0.59 0.57 0.53 0.50 0.46 0.39 0.32 0.27 0.26 0.33 0.42 0.49 0.48 0.46 0.49 0.51 0.46 0.40 0.38 0.38 0.35 0.28 0.27 0.30 0.32 0.31 0.29 0.26 0.28 0.32 0.34 0.34 0.33 0.30 0.28 0.28
0.38 0.45 0.45 0.43 0.36 0.29 0.22 0.17 0.16 0.15 0.14 0.17 0.21 0.29 0.42 0.50 0.57 0.59 0.59 0.57 0.53 0.48 0.44 0.35 0.28 0.23 0.22 0.22 0.20 0.17 0.17 0.21 0.26 0.25 0.24 0.25 0.24 0.24
0.17 0.18 0.17 0.18 0.16 0.13 0.10 0.07 0.06 0.06 0.07 0.08 0.11 0.15 0.22 0.33 0.47 0.56 0.59 0.62 0.60 0.58 0.55 0.49 0.43 0.40 0.32 0.29 0.27 0.20 0.17 0.16 0.16 0.15 0.15 0.16 0.16 0.17
0.08 0.07 0.06 0.06 0.06 0.06 0.05 0.05 0.04 0.04 0.05 0.07 0.11 0.16 0.24 0.28 0.30 0.38 0.47 0.50 0.47 0.44 0.44 0.45 0.45 0.44 0.40 0.38 0.35 0.28 0.22 0.19 0.20 0.22 0.18 0.16 0.14 0.13
0.06 0.06 0.05 0.04 0.03 0.04 0.05 0.04 0.03 0.03 0.04 0.05 0.08 0.14 0.20 0.28 0.30 0.29 0.30 0.33 0.35 0.38 0.40 0.40 0.39 0.39 0.39 0.41 0.42 0.39 0.32 0.27 0.26 0.28 0.30 0.37 0.33 0.22

GEFSNE_prec_meanprecacc_096.txt.gz
Total_Precipitation_Accumulation
1.80 1.85 1.77 1.72 1.69 1.54 1.45 1.46 1.50 1.39 1.25 1.02 0.86 0.77 0.78 0.77 0.84 0.65 0.53 0.52 0.42 0.32 0.26 0.22 0.23 0.23 0.23 0.24 0.24 0.24 0.24 0.22 0.21 0.23 0.28 0.34 0.39 0.41
1.77 1.86 1.86 1.87 1.89 1.79 1.62 1.53 1.42 1.38 1.31 1.11 0.90 0.76 0.88 0.86 0.90 0.68 0.60 0.65 0.52 0.43 0.33 0.28 0.26 0.26 0.24 0.21 0.17 0.14 0.13 0.13 0.14 0.17 0.29 0.50 0.59 0.57
1.59 1.67 1.77 1.87 1.97 1.97 1.92 1.75 1.59 1.52 1.43 1.27 1.03 0.80 0.88 0.96 0.93 0.80 0.69 0.58 0.52 0.49 0.39 0.34 0.30 0.27 0.28 0.28 0.23 0.18 0.14 0.11 0.10 0.13 0.20 0.34 0.63 0.73
1.38 1.36 1.46 1.58 1.70 1.85 1.90 1.84 1.79 1.67 1.58 1.52 1.32 1.03 0.87 0.88 0.91 0.94 0.84 0.68 0.61 0.62 0.55 0.46 0.40 0.34 0.31 0.29 0.26 0.23 0.18 0.15 0.12 0.12 0.15 0.18 0.27 0.41
1.16 1.14 1.16 1.27 1.40 1.52 1.61 1.67 1.76 1.79 1.74 1.63 1.51 1.32 1.06 0.97 0.98 0.96 0.94 0.96 0.79 0.72 0.70 0.62 0.57 0.50 0.46 0.41 0.35 0.29 0.25 0.23 0.19 0.16 0.14 0.14 0.16 0.22
0.92 0.93 0.97 1.00 1.06 1.18 1.34 1.52 1.67 1.77 1.81 1.76 1.63 1.41 1.24 1.15 1.09 1.07 1.09 1.09 1.02 0.88 0.80 0.74 0.73 0.65 0.58 0.51 0.45 0.39 0.35 0.34 0.32 0.28 0.22 0.18 0.15 0.15
0.74 0.66 0.67 0.74 0.75 0.80 0.87 1.14 1.37 1.53 1.63 1.69 1.62 1.44 1.23 1.13 1.02 1.03 1.09 1.17 1.18 1.10 1.00 0.84 0.76 0.70 0.66 0.62 0.54 0.45 0.39 0.35 0.34 0.33 0.31 0.28 0.25 0.22
0.65 0.60 0.59 0.64 0.57 0.51 0.53 0.73 1.01 1.17 1.32 1.45 1.49 1.36 1.22 1.11 1.10 1.08 1.05 1.04 1.04 0.96 0.89 0.90 0.83 0.78 0.72 0.68 0.70 0.64 0.55 0.47 0.41 0.37 0.37 0.39 0.38 0.37
0.70 0.70 0.64 0.60 0.69 0.59 0.54 0.57 0.65 0.77 0.90 1.09 1.27 1.29 1.36 1.25 1.11 1.02 0.98 0.97 0.94 0.93 0.86 0.84 0.79 0.74 0.69 0.67 0.73 0.70 0.67 0.62 0.55 0.49 0.45 0.43 0.43 0.44
0.76 0.80 0.83 0.77 0.73 0.80 0.75 0.77 0.72 0.65 0.73 0.65 0.80 1.12 1.22 1.25 1.18 1.12 1.11 1.02 0.93 0.90 0.83 0.84 0.83 0.76 0.65 0.60 0.63 0.58 0.55 0.55 0.57 0.58 0.58 0.57 0.53 0.50
0.74 0.83 0.84 0.76 0.80 0.86 0.95 1.01 0.93 0.78 0.92 0.93 0.84 0.90 0.99 1.01 1.05 1.07 1.08 0.99 0.93 0.87 0.72 0.64 0.65 0.67 0.68 0.64 0.58 0.55 0.49 0.46 0.46 0.45 0.43 0.42 0.42 0.44
0.75 0.80 0.94 0.83 0.80 0.79 0.84 0.95 0.94 0.82 0.72 0.75 0.72 0.63 0.56 0.63 0.78 0.86 1.03 1.06 0.98 0.88 0.71 0.60 0.61 0.58 0.61 0.58 0.50 0.47 0.44 0.43 0.41 0.38 0.36 0.32 0.29 0.28
0.87 0.91 0.88 0.91 0.73 0.69 0.71 0.71 0.76 0.74 0.72 0.78 0.84 0.75 0.65 0.60 0.61 0.63 0.74 0.84 0.90 0.81 0.69 0.57 0.57 0.53 0.47 0.43 0.43 0.44 0.44 0.41 0.37 0.36 0.35 0.33 0.31 0.26
0.78 0.77 0.74 0.79 0.62 0.53 0.50 0.56 0.60 0.59 0.63 0.76 0.79 0.77 0.76 0.71 0.65 0.62 0.62 0.67 0.72 0.74 0.68 0.57 0.52 0.48 0.42 0.37 0.38 0.42 0.41 0.38 0.34 0.32 0.30 0.34 0.34 0.34
0.51 0.58 0.58 0.56 0.49 0.43 0.47 0.50 0.51 0.53 0.59 0.63 0.67 0.65 0.64 0.66 0.65 0.64 0.61 0.58 0.56 0.51 0.48 0.47 0.49 0.50 0.46 0.40 0.35 0.38 0.40 0.36 0.32 0.31 0.30 0.28 0.26 0.28
0.40 0.40 0.39 0.39 0.40 0.41 0.44 0.47 0.51 0.54 0.57 0.56 0.56 0.59 0.58 0.60 0.63 0.61 0.61 0.61 0.63 0.59 0.55 0.53 0.51 0.51 0.51 0.46 0.40 0.35 0.37 0.39 0.36 0.33 0.29 0.28 0.26 0.25
0.49 0.41 0.37 0.38 0.40 0.47 0.48 0.45 0.47 0.50 0.51 0.50 0.51 0.52 0.50 0.53 0.56 0.53 0.52 0.54 0.54 0.52 0.53 0.55 0.54 0.52 0.51 0.50 0.51 0.49 0.49 0.49 0.47 0.44 0.38 0.33 0.29 0.28
0.48 0.54 0.55 0.59 0.61 0.60 0.57 0.48 0.42 0.41 0.45 0.50 0.50 0.49 0.48 0.47 0.50 0.51 0.49 0.49 0.48 0.43 0.38 0.38 0.42 0.46 0.48 0.45 0.40 0.41 0.47 0.49 0.52 0.52 0.45 0.38 0.33 0.32
0.44 0.59 0.59 0.57 0.53 0.50 0.46 0.40 0.34 0.29 0.29 0.36 0.45 0.52 0.51 0.50 0.53 0.55 0.51 0.45 0.43 0.43 0.39 0.32 0.30 0.34 0.37 0.35 0.33 0.30 0.32 0.37 0.40 0.40 0.40 0.38 0.35 0.35
0.38 0.45 0.45 0.43 0.36 0.29 0.22 0.17 0.16 0.15 0.15 0.19 0.22 0.31 0.46 0.55 0.62 0.63 0.62 0.60 0.57 0.53 0.48 0.40 0.31 0.25 0.25 0.25 0.22 0.20 0.20 0.24 0.30 0.30 0.30 0.31 0.30 0.30
0.17 0.18 0.17 0.18 0.16 0.13 0.10 0.07 0.06 0.06 0.07 0.09 0.12 0.16 0.24 0.36 0.52 0.61 0.63 0.66 0.63 0.62 0.59 0.52 0.47 0.45 0.36 0.32 0.29 0.22 0.19 0.19 0.19 0.19 0.19 0.20 0.20 0.19
0.08 0.07 0.06 0.06 0.07 0.06 0.05 0.05 0.05 0.05 0.05 0.08 0.13 0.18 0.26 0.31 0.35 0.43 0.53 0.56 0.51 0.47 0.48 0.49 0.50 0.49 0.44 0.41 0.37 0.30 0.23 0.20 0.21 0.23 0.20 0.18 0.15 0.15
0.06 0.06 0.05 0.04 0.03 0.05 0.05 0.04 0.04 0.04 0.05 0.06 0.09 0.15 0.22 0.30 0.34 0.35 0.36 0.39 0.42 0.44 0.44 0.44 0.44 0.43 0.43 0.45 0.45 0.41 0.33 0.28 0.27 0.29 0.31 0.38 0.33 0.23

GEFSNE_prec_meanprecacc_102.txt.gz
Total_Precipitation_Accumulation
1.81 1.87 1.79 1.75 1.72 1.59 1.49 1.51 1.55 1.42 1.28 1.06 0.93 0.83 0.85 0.85 0.93 0.74 0.59 0.58 0.48 0.37 0.31 0.27 0.26 0.27 0.28 0.32 0.36 0.37 0.38 0.35 0.32 0.33 0.36 0.41 0.45 0.46
1.79 1.88 1.88 1.89 1.92 1.83 1.66 1.57 1.47 1.43 1.36 1.15 0.95 0.83 0.96 0.94 0.98 0.77 0.68 0.74 0.61 0.51 0.40 0.34 0.31 0.31 0.29 0.26 0.24 0.23 0.24 0.24 0.26 0.29 0.37 0.57 0.65 0.62
1.60 1.68 1.79 1.91 2.00 2.01 1.96 1.80 1.63 1.55 1.45 1.29 1.06 0.86 0.96 1.05 1.01 0.89 0.79 0.68 0.62 0.58 0.49 0.42 0.37 0.34 0.34 0.33 0.28 0.23 0.21 0.19 0.18 0.21 0.27 0.40 0.68 0.77
1.40 1.37 1.48 1.61 1.73 1.88 1.94 1.88 1.84 1.71 1.61 1.54 1.34 1.06 0.94 0.98 1.01 1.04 0.95 0.79 0.72 0.74 0.67 0.58 0.49 0.41 0.37 0.35 0.30 0.27 0.23 0.20 0.18 0.17 0.19 0.23 0.31 0.45
1.18 1.16 1.18 1.29 1.42 1.55 1.64 1.71 1.80 1.84 1.79 1.65 1.54 1.34 1.10 1.06 1.09 1.08 1.06 1.08 0.91 0.84 0.82 0.75 0.69 0.61 0.54 0.47 0.40 0.34 0.30 0.27 0.23 0.19 0.17 0.18 0.20 0.26
0.95 0.96 0.98 1.02 1.09 1.20 1.36 1.55 1.71 1.80 1.85 1.80 1.67 1.44 1.27 1.22 1.19 1.17 1.20 1.21 1.15 1.00 0.92 0.86 0.86 0.77 0.68 0.59 0.52 0.45 0.41 0.38 0.36 0.31 0.25 0.20 0.17 0.17
0.77 0.69 0.70 0.76 0.77 0.82 0.89 1.15 1.39 1.56 1.66 1.73 1.65 1.47 1.27 1.19 1.09 1.11 1.18 1.28 1.30 1.23 1.14 0.98 0.90 0.83 0.78 0.73 0.64 0.54 0.46 0.42 0.40 0.37 0.35 0.32 0.28 0.25
0.67 0.61 0.60 0.64 0.58 0.53 0.56 0.76 1.02 1.19 1.35 1.48 1.52 1.38 1.24 1.16 1.17 1.17 1.15 1.15 1.15 1.07 1.01 1.03 0.96 0.90 0.84 0.78 0.80 0.74 0.64 0.55 0.48 0.43 0.42 0.43 0.43 0.42
0.72 0.72 0.65 0.61 0.69 0.60 0.55 0.61 0.69 0.80 0.93 1.13 1.30 1.31 1.38 1.28 1.16 1.09 1.07 1.07 1.05 1.05 0.98 0.95 0.91 0.85 0.78 0.76 0.82 0.78 0.76 0.71 0.64 0.58 0.53 0.51 0.51 0.52
0.78 0.83 0.84 0.78 0.75 0.81 0.76 0.78 0.74 0.68 0.76 0.68 0.83 1.15 1.26 1.30 1.23 1.18 1.19 1.11 1.03 1.02 0.95 0.94 0.93 0.86 0.75 0.68 0.71 0.65 0.62 0.62 0.65 0.68 0.69 0.67 0.63 0.60
0.75 0.84 0.85 0.77 0.83 0.89 0.97 1.02 0.94 0.80 0.95 0.98 0.88 0.95 1.04 1.07 1.11 1.13 1.13 1.07 1.02 0.97 0.82 0.75 0.74 0.75 0.76 0.73 0.67 0.64 0.57 0.54 0.54 0.52 0.50 0.52 0.54 0.57
0.76 0.81 0.95 0.86 0.83 0.81 0.86 0.96 0.95 0.84 0.75 0.79 0.75 0.65 0.59 0.67 0.83 0.92 1.09 1.14 1.07 0.96 0.79 0.69 0.70 0.66 0.68 0.64 0.56 0.55 0.52 0.51 0.48 0.46 0.44 0.41 0.40 0.40
0.87 0.92 0.89 0.95 0.77 0.73 0.75 0.73 0.79 0.76 0.74 0.80 0.86 0.77 0.67 0.62 0.65 0.68 0.79 0.91 0.99 0.91 0.79 0.66 0.66 0.63 0.54 0.49 0.49 0.50 0.50 0.48 0.44 0.44 0.42 0.40 0.39 0.34
0.78 0.77 0.74 0.80 0.64 0.55 0.53 0.59 0.64 0.63 0.66 0.79 0.82 0.80 0.78 0.73 0.68 0.65 0.66 0.71 0.78 0.82 0.78 0.68 0.62 0.58 0.52 0.45 0.44 0.48 0.47 0.45 0.41 0.39 0.37 0.41 0.42 0.43
0.51 0.59 0.59 0.56 0.51 0.44 0.48 0.53 0.54 0.54 0.61 0.66 0.69 0.68 0.68 0.70 0.68 0.67 0.65 0.63 0.61 0.57 0.54 0.55 0.59 0.59 0.56 0.49 0.42 0.43 0.46 0.43 0.39 0.38 0.37 0.34 0.32 0.35
0.41 0.42 0.41 0.40 0.41 0.42 0.44 0.49 0.54 0.56 0.58 0.58 0.58 0.62 0.62 0.65 0.69 0.67 0.66 0.66 0.67 0.64 0.60 0.59 0.60 0.62 0.62 0.55 0.47 0.41 0.42 0.44 0.42 0.39 0.37 0.35 0.34 0.32
0.49 0.42 0.37 0.38 0.41 0.47 0.49 0.46 0.49 0.52 0.52 0.51 0.53 0.54 0.53 0.57 0.60 0.59 0.59 0.60 0.58 0.55 0.55 0.59 0.60 0.61 0.61 0.61 0.62 0.58 0.56 0.55 0.52 0.50 0.46 0.41 0.37 0.35
0.48 0.54 0.55 0.60 0.62 0.60 0.57 0.49 0.43 0.42 0.46 0.51 0.51 0.51 0.50 0.49 0.53 0.55 0.53 0.55 0.54 0.48 0.43 0.43 0.47 0.52 0.55 0.54 0.49 0.51 0.56 0.57 0.60 0.60 0.53 0.47 0.43 0.41
0.44 0.59 0.59 0.57 0.53 0.50 0.46 0.40 0.35 0.31 0.31 0.37 0.46 0.53 0.53 0.52 0.56 0.58 0.55 0.48 0.46 0.46 0.43 0.37 0.35 0.40 0.43 0.40 0.38 0.36 0.39 0.45 0.49 0.50 0.48 0.45 0.42 0.43
0.38 0.45 0.45 0.43 0.36 0.29 0.22 0.17 0.16 0.15 0.16 0.20 0.24 0.32 0.47 0.57 0.64 0.66 0.66 0.65 0.61 0.57 0.51 0.43 0.34 0.29 0.29 0.29 0.27 0.24 0.24 0.30 0.37 0.37 0.36 0.37 0.36 0.38
0.18 0.18 0.17 0.18 0.17 0.13 0.10 0.07 0.06 0.06 0.07 0.09 0.13 0.17 0.27 0.39 0.55 0.65 0.67 0.70 0.69 0.68 0.65 0.56 0.50 0.49 0.40 0.37 0.34 0.25 0.22 0.23 0.25 0.25 0.26 0.27 0.27 0.26
0.08 0.08 0.07 0.06 0.07 0.06 0.06 0.05 0.05 0.05 0.05 0.08 0.13 0.18 0.27 0.32 0.36 0.45 0.55 0.59 0.56 0.52 0.53 0.55 0.56 0.55 0.49 0.47 0.43 0.34 0.27 0.24 0.26 0.29 0.26 0.24 0.21 0.19
0.07 0.06 0.06 0.04 0.04 0.05 0.05 0.05 0.04 0.04 0.05 0.06 0.09 0.15 0.22 0.30 0.35 0.36 0.38 0.41 0.45 0.49 0.51 0.51 0.51 0.50 0.50 0.51 0.52 0.48 0.39 0.33 0.31 0.33 0.35 0.42 0.37 0.26

GEFSNE_prec_meanprecacc_108.txt.gz
Total_Precipitation_Accumulation
1.83 1.89 1.82 1.78 1.76 1.64 1.56 1.60 1.64 1.49 1.34 1.12 0.99 0.88 0.89 0.89 0.98 0.77 0.64 0.63 0.52 0.41 0.34 0.29 0.29 0.30 0.33 0.37 0.42 0.47 0.50 0.49 0.47 0.45 0.46 0.49 0.51 0.51
1.81 1.91 1.91 1.92 1.95 1.86 1.70 1.63 1.54 1.50 1.43 1.20 1.00 0.88 1.00 0.96 1.02 0.81 0.72 0.79 0.65 0.55 0.44 0.38 0.34 0.34 0.32 0.29 0.27 0.28 0.32 0.35 0.38 0.41 0.48 0.66 0.74 0.70
1.62 1.71 1.82 1.93 2.02 2.03 1.99 1.83 1.67 1.60 1.51 1.34 1.10 0.91 1.02 1.09 1.04 0.93 0.82 0.72 0.67 0.62 0.52 0.46 0.41 0.37 0.37 0.36 0.31 0.26 0.25 0.26 0.27 0.31 0.37 0.49 0.76 0.84
1.43 1.40 1.51 1.63 1.76 1.91 1.97 1.91 1.87 1.75 1.65 1.58 1.38 1.11 0.98 1.02 1.04 1.07 0.98 0.82 0.76 0.78 0.70 0.60 0.52 0.45 0.40 0.38 0.35 0.32 0.27 0.26 0.25 0.24 0.27 0.31 0.38 0.51
1.22 1.19 1.21 1.32 1.46 1.59 1.68 1.75 1.85 1.88 1.83 1.70 1.58 1.38 1.14 1.09 1.13 1.11 1.08 1.11 0.95 0.87 0.85 0.78 0.72 0.64 0.58 0.51 0.44 0.39 0.34 0.31 0.29 0.25 0.23 0.24 0.27 0.34
0.99 1.00 1.03 1.06 1.12 1.24 1.40 1.60 1.76 1.86 1.90 1.85 1.72 1.49 1.32 1.26 1.23 1.22 1.24 1.24 1.19 1.03 0.96 0.89 0.89 0.80 0.72 0.64 0.56 0.49 0.45 0.43 0.41 0.36 0.30 0.25 0.21 0.23
0.81 0.73 0.74 0.79 0.79 0.85 0.92 1.19 1.43 1.61 1.72 1.78 1.71 1.51 1.32 1.23 1.13 1.16 1.24 1.34 1.36 1.29 1.19 1.02 0.94 0.86 0.81 0.78 0.70 0.60 0.52 0.49 0.47 0.43 0.40 0.38 0.33 0.29
0.70 0.64 0.62 0.66 0.59 0.55 0.58 0.77 1.04 1.23 1.39 1.53 1.57 1.42 1.27 1.19 1.21 1.21 1.20 1.21 1.21 1.13 1.07 1.09 1.02 0.95 0.88 0.82 0.85 0.81 0.72 0.63 0.55 0.50 0.48 0.49 0.49 0.48
0.74 0.74 0.67 0.64 0.72 0.63 0.57 0.63 0.71 0.81 0.95 1.17 1.35 1.34 1.40 1.31 1.19 1.12 1.11 1.11 1.11 1.14 1.08 1.03 0.98 0.91 0.84 0.82 0.89 0.86 0.84 0.80 0.72 0.66 0.61 0.58 0.57 0.57
0.81 0.88 0.88 0.81 0.79 0.84 0.79 0.80 0.78 0.71 0.78 0.70 0.87 1.19 1.32 1.34 1.26 1.22 1.24 1.16 1.08 1.08 1.05 1.04 1.01 0.93 0.80 0.73 0.77 0.72 0.69 0.68 0.71 0.75 0.78 0.78 0.73 0.69
0.76 0.87 0.87 0.80 0.85 0.90 1.00 1.05 0.97 0.83 0.98 0.99 0.90 0.97 1.08 1.11 1.14 1.16 1.17 1.11 1.06 1.02 0.89 0.83 0.82 0.85 0.84 0.79 0.72 0.70 0.63 0.60 0.59 0.58 0.57 0.60 0.65 0.70
0.77 0.82 0.96 0.87 0.85 0.83 0.88 0.99 0.97 0.86 0.77 0.81 0.77 0.67 0.61 0.70 0.86 0.95 1.13 1.18 1.11 1.01 0.86 0.78 0.79 0.76 0.79 0.72 0.62 0.61 0.57 0.57 0.55 0.52 0.51 0.48 0.49 0.51
0.88 0.93 0.91 0.98 0.82 0.78 0.77 0.75 0.80 0.78 0.76 0.83 0.89 0.80 0.69 0.65 0.68 0.72 0.84 0.96 1.03 0.96 0.86 0.75 0.76 0.74 0.66 0.59 0.57 0.57 0.56 0.54 0.50 0.50 0.50 0.49 0.48 0.44
0.78 0.78 0.75 0.82 0.66 0.58 0.55 0.61 0.65 0.65 0.70 0.83 0.86 0.83 0.81 0.75 0.70 0.69 0.71 0.77 0.83 0.87 0.85 0.76 0.71 0.68 0.64 0.56 0.53 0.55 0.53 0.50 0.47 0.45 0.43 0.49 0.51 0.53
0.51 0.59 0.59 0.57 0.51 0.45 0.49 0.53 0.55 0.56 0.63 0.70 0.73 0.72 0.72 0.74 0.72 0.71 0.69 0.69 0.67 0.62 0.60 0.62 0.66 0.69 0.66 0.60 0.52 0.51 0.52 0.49 0.44 0.43 0.43 0.40 0.39 0.43
0.41 0.43 0.42 0.41 0.42 0.42 0.45 0.49 0.55 0.58 0.60 0.60 0.61 0.65 0.66 0.70 0.74 0.71 0.70 0.71 0.73 0.70 0.66 0.65 0.67 0.71 0.71 0.64 0.57 0.50 0.49 0.50 0.47 0.44 0.42 0.42 0.40 0.38
0.49 0.43 0.39 0.39 0.41 0.48 0.49 0.47 0.50 0.54 0.54 0.53 0.54 0.56 0.55 0.60 0.64 0.63 0.64 0.65 0.64 0.60 0.61 0.63 0.65 0.67 0.68 0.68 0.70 0.65 0.63 0.60 0.57 0.55 0.53 0.49 0.44 0.42
0.48 0.54 0.55 0.60 0.62 0.60 0.57 0.49 0.44 0.44 0.49 0.53 0.53 0.53 0.53 0.52 0.56 0.58 0.56 0.58 0.58 0.52 0.48 0.48 0.52 0.57 0.60 0.57 0.53 0.54 0.60 0.62 0.65 0.66 0.60 0.56 0.51 0.48
0.44 0.59 0.59 0.57 0.53 0.50 0.46 0.40 0.35 0.32 0.32 0.38 0.47 0.54 0.54 0.54 0.58 0.61 0.57 0.51 0.50 0.51 0.48 0.42 0.40 0.45 0.48 0.44 0.41 0.38 0.42 0.49 0.54 0.57 0.56 0.52 0.48 0.49
0.38 0.46 0.45 0.43 0.36 0.29 0.22 0.17 0.16 0.16 0.16 0.20 0.24 0.33 0.47 0.57 0.65 0.67 0.68 0.67 0.64 0.60 0.55 0.46 0.38 0.33 0.34 0.34 0.31 0.28 0.27 0.33 0.41 0.43 0.42 0.44 0.43 0.46
0.18 0.18 0.18 0.18 0.17 0.13 0.10 0.08 0.06 0.07 0.08 0.10 0.13 0.18 0.27 0.39 0.55 0.65 0.68 0.72 0.70 0.70 0.67 0.60 0.55 0.54 0.44 0.40 0.36 0.27 0.24 0.25 0.27 0.29 0.31 0.33 0.34 0.33
0.08 0.08 0.07 0.06 0.07 0.06 0.06 0.06 0.05 0.05 0.05 0.08 0.13 0.19 0.27 0.32 0.37 0.45 0.56 0.60 0.57 0.53 0.55 0.58 0.59 0.58 0.53 0.51 0.47 0.37 0.29 0.26 0.29 0.33 0.30 0.29 0.26 0.24
0.07 0.06 0.06 0.04 0.04 0.05 0.05 0.05 0.04 0.05 0.05 0.07 0.10 0.16 0.23 0.31 0.35 0.37 0.39 0.42 0.46 0.50 0.52 0.53 0.53 0.53 0.55 0.56 0.58 0.53 0.43 0.37 0.36 0.38 0.40 0.47 0.42 0.30

GEFSNE_prec_meanprecacc_114.txt.gz
Total_Precipitation_Accumulation
1.87 1.93 1.86 1.83 1.80 1.67 1.60 1.66 1.71 1.55 1.40 1.18 1.05 0.93 0.94 0.94 1.04 0.82 0.69 0.66 0.53 0.42 0.36 0.31 0.32 0.33 0.35 0.40 0.47 0.53 0.58 0.59 0.59 0.58 0.56 0.57 0.58 0.57
1.85 1.94 1.95 1.96 1.98 1.89 1.73 1.67 1.60 1.57 1.49 1.26 1.06 0.93 1.04 1.00 1.08 0.87 0.79 0.86 0.69 0.56 0.45 0.39 0.36 0.37 0.34 0.30 0.30 0.32 0.37 0.42 0.47 0.53 0.61 0.77 0.83 0.77
1.67 1.75 1.85 1.96 2.06 2.07 2.03 1.86 1.72 1.65 1.56 1.39 1.17 0.97 1.07 1.13 1.08 0.99 0.89 0.78 0.73 0.67 0.56 0.50 0.44 0.40 0.39 0.38 0.33 0.28 0.28 0.31 0.33 0.39 0.47 0.60 0.86 0.92
1.48 1.45 1.54 1.66 1.79 1.94 2.01 1.95 1.91 1.79 1.69 1.63 1.43 1.16 1.03 1.07 1.10 1.13 1.03 0.88 0.83 0.84 0.76 0.64 0.55 0.47 0.43 0.40 0.37 0.33 0.29 0.28 0.29 0.29 0.33 0.39 0.47 0.60
1.27 1.24 1.26 1.36 1.50 1.63 1.72 1.79 1.89 1.91 1.87 1.75 1.63 1.44 1.19 1.14 1.19 1.17 1.13 1.16 1.00 0.93 0.90 0.82 0.74 0.66 0.59 0.53 0.45 0.40 0.36 0.33 0.32 0.30 0.29 0.29 0.34 0.41
1.03 1.04 1.08 1.11 1.17 1.29 1.44 1.64 1.81 1.90 1.94 1.90 1.79 1.55 1.38 1.31 1.28 1.26 1.29 1.29 1.23 1.08 1.00 0.92 0.91 0.82 0.73 0.65 0.57 0.50 0.46 0.45 0.43 0.39 0.35 0.29 0.26 0.28
0.84 0.75 0.77 0.82 0.82 0.89 0.96 1.23 1.47 1.65 1.77 1.83 1.77 1.59 1.39 1.28 1.18 1.21 1.29 1.39 1.41 1.34 1.25 1.06 0.98 0.89 0.82 0.78 0.71 0.61 0.53 0.50 0.48 0.46 0.43 0.41 0.38 0.34
0.72 0.66 0.65 0.69 0.61 0.56 0.60 0.80 1.08 1.27 1.43 1.58 1.63 1.49 1.35 1.26 1.28 1.27 1.25 1.25 1.25 1.18 1.12 1.14 1.08 0.99 0.91 0.84 0.87 0.82 0.73 0.64 0.57 0.53 0.51 0.52 0.53 0.53
0.76 0.77 0.70 0.66 0.74 0.65 0.59 0.65 0.73 0.84 0.98 1.20 1.41 1.40 1.48 1.39 1.26 1.19 1.17 1.17 1.16 1.18 1.12 1.07 1.03 0.96 0.89 0.86 0.93 0.88 0.86 0.81 0.74 0.68 0.64 0.62 0.61 0.62
0.83 0.91 0.91 0.85 0.83 0.89 0.82 0.83 0.80 0.74 0.80 0.72 0.91 1.25 1.39 1.43 1.34 1.29 1.30 1.21 1.12 1.13 1.09 1.07 1.05 0.97 0.85 0.78 0.82 0.75 0.71 0.70 0.73 0.77 0.80 0.81 0.77 0.74
0.78 0.88 0.90 0.84 0.89 0.95 1.05 1.09 1.00 0.87 1.00 1.00 0.91 0.99 1.11 1.15 1.21 1.23 1.22 1.14 1.08 1.04 0.92 0.86 0.85 0.88 0.89 0.83 0.76 0.73 0.66 0.62 0.61 0.60 0.60 0.63 0.69 0.76
0.79 0.84 0.97 0.88 0.86 0.84 0.93 1.04 1.01 0.90 0.79 0.82 0.79 0.68 0.62 0.72 0.89 1.00 1.19 1.24 1.17 1.05 0.89 0.81 0.82 0.80 0.82 0.76 0.66 0.64 0.60 0.59 0.57 0.55 0.54 0.52 0.55 0.57
0.90 0.95 0.92 0.98 0.82 0.78 0.79 0.80 0.84 0.82 0.81 0.86 0.92 0.83 0.72 0.68 0.71 0.75 0.90 1.04 1.11 1.02 0.91 0.80 0.79 0.78 0.71 0.63 0.61 0.62 0.60 0.57 0.52 0.52 0.52 0.51 0.51 0.48
0.79 0.79 0.76 0.82 0.66 0.58 0.55 0.62 0.66 0.68 0.75 0.89 0.90 0.87 0.85 0.80 0.74 0.73 0.77 0.84 0.91 0.94 0.90 0.81 0.75 0.72 0.68 0.60 0.58 0.61 0.60 0.56 0.51 0.48 0.46 0.52 0.54 0.56
0.51 0.59 0.59 0.57 0.52 0.45 0.49 0.54 0.55 0.57 0.65 0.73 0.77 0.75 0.75 0.79 0.77 0.76 0.74 0.75 0.73 0.68 0.64 0.66 0.71 0.73 0.71 0.65 0.57 0.57 0.60 0.56 0.50 0.48 0.47 0.44 0.43 0.47
0.42 0.43 0.42 0.41 0.42 0.43 0.45 0.50 0.56 0.60 0.62 0.62 0.63 0.67 0.69 0.73 0.78 0.75 0.73 0.75 0.78 0.75 0.71 0.71 0.72 0.76 0.78 0.70 0.63 0.56 0.56 0.58 0.54 0.52 0.49 0.48 0.45 0.42
0.50 0.44 0.40 0.40 0.42 0.49 0.50 0.48 0.51 0.55 0.55 0.55 0.56 0.58 0.57 0.62 0.67 0.66 0.67 0.68 0.67 0.64 0.66 0.70 0.72 0.73 0.73 0.73 0.75 0.70 0.68 0.67 0.65 0.64 0.61 0.55 0.50 0.47
0.48 0.54 0.56 0.60 0.62 0.61 0.58 0.49 0.44 0.45 0.50 0.54 0.53 0.54 0.54 0.53 0.58 0.60 0.59 0.62 0.61 0.55 0.51 0.52 0.57 0.62 0.63 0.60 0.56 0.57 0.64 0.66 0.71 0.74 0.68 0.63 0.56 0.52
0.44 0.59 0.59 0.57 0.53 0.50 0.47 0.40 0.35 0.32 0.33 0.40 0.48 0.55 0.55 0.55 0.59 0.63 0.60 0.54 0.52 0.54 0.50 0.45 0.43 0.48 0.51 0.47 0.44 0.41 0.44 0.52 0.58 0.61 0.61 0.57 0.52 0.52
0.38 0.46 0.45 0.43 0.36 0.29 0.23 0.17 0.16 0.16 0.16 0.21 0.25 0.33 0.48 0.58 0.66 0.68 0.69 0.68 0.66 0.62 0.57 0.50 0.41 0.36 0.37 0.37 0.34 0.30 0.29 0.35 0.43 0.46 0.46 0.48 0.48 0.51
0.18 0.18 0.18 0.18 0.17 0.14 0.10 0.08 0.07 0.07 0.08 0.10 0.13 0.18 0.27 0.40 0.56 0.66 0.69 0.72 0.71 0.71 0.68 0.62 0.58 0.57 0.47 0.43 0.38 0.29 0.26 0.27 0.29 0.31 0.34 0.37 0.37 0.37
0.08 0.08 0.07 0.06 0.07 0.06 0.06 0.06 0.05 0.05 0.06 0.08 0.13 0.19 0.27 0.33 0.37 0.46 0.56 0.61 0.57 0.54 0.56 0.59 0.60 0.60 0.55 0.53 0.48 0.38 0.31 0.28 0.31 0.35 0.32 0.32 0.29 0.27
0.07 0.06 0.06 0.04 0.04 0.05 0.05 0.05 0.04 0.05 0.05 0.07 0.10 0.16 0.23 0.31 0.36 0.37 0.39 0.42 0.47 0.51 0.52 0.53 0.54 0.55 0.56 0.58 0.60 0.55 0.46 0.38 0.37 0.39 0.41 0.50 0.44 0.32

GEFSNE_prec_meanprecacc_120.txt.gz
Total_Precipitation_Accumulation
1.89 1.94 1.88 1.85 1.82 1.69 1.61 1.68 1.74 1.58 1.43 1.21 1.09 0.98 1.00 1.01 1.11 0.92 0.79 0.74 0.59 0.47 0.40 0.34 0.34 0.37 0.41 0.48 0.55 0.63 0.71 0.71 0.71 0.71 0.69 0.70 0.71 0.69
1.86 1.95 1.96 1.96 1.99 1.90 1.74 1.69 1.63 1.61 1.52 1.28 1.08 0.96 1.09 1.02 1.12 0.93 0.87 0.94 0.75 0.61 0.50 0.43 0.39 0.40 0.38 0.37 0.37 0.39 0.44 0.49 0.55 0.63 0.72 0.88 0.92 0.86
1.68 1.76 1.87 1.97 2.08 2.08 2.04 1.87 1.73 1.68 1.58 1.42 1.19 1.02 1.12 1.17 1.13 1.05 0.96 0.85 0.78 0.71 0.61 0.55 0.49 0.44 0.42 0.41 0.38 0.36 0.35 0.35 0.37 0.45 0.55 0.69 0.95 1.00
1.49 1.46 1.55 1.67 1.81 1.96 2.02 1.95 1.92 1.81 1.71 1.65 1.47 1.21 1.07 1.11 1.15 1.20 1.12 0.95 0.88 0.89 0.80 0.69 0.61 0.52 0.46 0.42 0.39 0.36 0.34 0.33 0.34 0.35 0.38 0.44 0.55 0.71
1.30 1.26 1.28 1.37 1.51 1.64 1.73 1.80 1.90 1.94 1.90 1.79 1.68 1.48 1.23 1.20 1.25 1.25 1.23 1.26 1.08 0.99 0.96 0.88 0.80 0.72 0.64 0.56 0.48 0.42 0.37 0.36 0.37 0.36 0.34 0.35 0.39 0.48
1.06 1.06 1.10 1.12 1.19 1.31 1.45 1.65 1.83 1.93 1.97 1.94 1.85 1.60 1.41 1.36 1.34 1.33 1.36 1.38 1.32 1.15 1.06 0.97 0.97 0.89 0.79 0.68 0.60 0.52 0.47 0.46 0.45 0.44 0.41 0.35 0.31 0.34
0.85 0.77 0.78 0.84 0.85 0.92 0.98 1.25 1.49 1.68 1.79 1.86 1.82 1.64 1.44 1.33 1.22 1.26 1.36 1.47 1.49 1.43 1.34 1.13 1.03 0.94 0.88 0.82 0.73 0.63 0.55 0.51 0.49 0.47 0.47 0.48 0.44 0.39
0.73 0.67 0.66 0.70 0.62 0.58 0.61 0.82 1.10 1.28 1.44 1.60 1.66 1.52 1.41 1.32 1.33 1.32 1.29 1.31 1.30 1.23 1.19 1.22 1.14 1.04 0.95 0.88 0.89 0.85 0.75 0.66 0.58 0.53 0.53 0.55 0.57 0.58
0.77 0.78 0.71 0.66 0.74 0.66 0.60 0.66 0.74 0.85 0.99 1.22 1.43 1.43 1.52 1.44 1.32 1.25 1.23 1.23 1.21 1.23 1.18 1.15 1.11 1.03 0.94 0.90 0.97 0.92 0.89 0.82 0.75 0.69 0.65 0.63 0.63 0.64
0.83 0.92 0.93 0.85 0.83 0.89 0.83 0.83 0.81 0.75 0.81 0.73 0.92 1.27 1.41 1.47 1.39 1.36 1.41 1.31 1.20 1.20 1.15 1.13 1.11 1.04 0.92 0.84 0.88 0.80 0.76 0.73 0.75 0.78 0.81 0.82 0.78 0.75
0.78 0.89 0.92 0.85 0.90 0.96 1.05 1.09 1.01 0.88 1.01 1.02 0.93 1.01 1.13 1.19 1.28 1.30 1.32 1.23 1.17 1.11 0.98 0.91 0.89 0.92 0.93 0.87 0.82 0.81 0.73 0.68 0.65 0.63 0.62 0.65 0.70 0.78
0.80 0.85 0.99 0.89 0.86 0.85 0.93 1.05 1.02 0.91 0.80 0.83 0.80 0.70 0.64 0.75 0.94 1.06 1.26 1.32 1.24 1.11 0.95 0.85 0.86 0.84 0.86 0.79 0.70 0.70 0.68 0.68 0.64 0.59 0.57 0.55 0.57 0.59
0.90 0.95 0.92 0.98 0.83 0.80 0.80 0.80 0.86 0.84 0.82 0.87 0.93 0.84 0.74 0.69 0.73 0.78 0.93 1.10 1.17 1.06 0.95 0.84 0.82 0.81 0.74 0.66 0.64 0.65 0.64 0.61 0.58 0.56 0.55 0.54 0.54 0.51
0.79 0.79 0.76 0.82 0.67 0.59 0.56 0.62 0.67 0.69 0.77 0.91 0.91 0.88 0.87 0.81 0.77 0.76 0.80 0.86 0.93 0.96 0.93 0.86 0.79 0.75 0.70 0.62 0.59 0.62 0.62 0.57 0.53 0.50 0.48 0.55 0.57 0.59
0.51 0.59 0.59 0.57 0.52 0.45 0.50 0.54 0.56 0.57 0.67 0.74 0.78 0.76 0.77 0.80 0.79 0.77 0.76 0.76 0.75 0.70 0.66 0.68 0.73 0.75 0.73 0.66 0.58 0.58 0.60 0.57 0.52 0.51 0.50 0.47 0.45 0.50
0.42 0.43 0.42 0.41 0.42 0.43 0.46 0.50 0.56 0.60 0.62 0.63 0.64 0.67 0.69 0.74 0.78 0.75 0.73 0.76 0.78 0.76 0.72 0.72 0.73 0.79 0.80 0.73 0.65 0.58 0.58 0.59 0.56 0.54 0.52 0.51 0.49 0.46
0.50 0.44 0.40 0.40 0.42 0.49 0.50 0.48 0.51 0.56 0.56 0.55 0.57 0.58 0.58 0.63 0.68 0.67 0.67 0.68 0.67 0.65 0.67 0.71 0.73 0.75 0.75 0.75 0.76 0.71 0.70 0.69 0.66 0.66 0.63 0.57 0.53 0.50
0.48 0.54 0.56 0.60 0.62 0.61 0.58 0.49 0.44 0.45 0.50 0.54 0.54 0.54 0.54 0.53 0.58 0.60 0.59 0.62 0.61 0.56 0.51 0.52 0.58 0.63 0.64 0.61 0.57 0.59 0.65 0.67 0.72 0.75 0.70 0.64 0.57 0.54
0.44 0.59 0.59 0.57 0.54 0.50 0.47 0.40 0.35 0.32 0.34 0.41 0.48 0.55 0.55 0.55 0.59 0.63 0.60 0.54 0.53 0.54 0.51 0.45 0.43 0.48 0.51 0.47 0.45 0.42 0.45 0.53 0.59 0.62 0.62 0.59 0.53 0.54
0.38 0.46 0.45 0.43 0.36 0.29 0.23 0.17 0.16 0.16 0.16 0.21 0.25 0.34 0.48 0.58 0.66 0.68 0.69 0.69 0.66 0.62 0.58 0.50 0.42 0.37 0.38 0.38 0.34 0.30 0.30 0.35 0.44 0.46 0.46 0.49 0.48 0.52
0.18 0.18 0.18 0.18 0.17 0.14 0.10 0.08 0.07 0.07 0.08 0.10 0.14 0.18 0.27 0.40 0.56 0.66 0.69 0.72 0.71 0.71 0.69 0.62 0.58 0.58 0.47 0.43 0.39 0.29 0.26 0.28 0.30 0.32 0.35 0.38 0.38 0.38
0.08 0.08 0.07 0.06 0.07 0.06 0.06 0.06 0.05 0.05 0.06 0.08 0.13 0.19 0.27 0.33 0.37 0.46 0.56 0.61 0.57 0.54 0.56 0.59 0.60 0.60 0.55 0.54 0.49 0.39 0.31 0.28 0.31 0.36 0.33 0.33 0.30 0.28
0.07 0.06 0.06 0.04 0.04 0.05 0.05 0.05 0.04 0.05 0.05 0.07 0.10 0.16 0.23 0.31 0.36 0.37 0.39 0.42 0.47 0.51 0.52 0.53 0.54 0.55 0.56 0.58 0.60 0.55 0.46 0.39 0.37 0.39 0.41 0.50 0.45 0.33

GEFSNE_prec_meanprecacc_126.txt.gz
Total_Precipitation_Accumulation
1.89 1.95 1.89 1.85 1.82 1.70 1.64 1.70 1.76 1.62 1.47 1.26 1.15 1.07 1.11 1.10 1.21 1.00 0.88 0.83 0.66 0.55 0.47 0.39 0.38 0.43 0.48 0.58 0.70 0.75 0.81 0.83 0.83 0.84 0.82 0.84 0.85 0.85
1.88 1.98 1.97 1.97 2.00 1.90 1.76 1.70 1.64 1.63 1.54 1.32 1.12 1.01 1.16 1.10 1.22 1.02 0.95 1.02 0.82 0.67 0.56 0.49 0.44 0.44 0.43 0.42 0.48 0.50 0.51 0.54 0.61 0.70 0.80 0.96 1.02 0.96
1.69 1.77 1.87 1.97 2.08 2.09 2.05 1.89 1.75 1.71 1.60 1.43 1.22 1.05 1.17 1.22 1.19 1.13 1.03 0.91 0.84 0.77 0.66 0.60 0.55 0.48 0.47 0.46 0.44 0.44 0.43 0.42 0.42 0.48 0.59 0.73 1.00 1.05
1.50 1.46 1.56 1.67 1.81 1.96 2.02 1.96 1.94 1.84 1.73 1.67 1.50 1.24 1.11 1.15 1.19 1.26 1.17 1.00 0.92 0.95 0.86 0.74 0.66 0.58 0.52 0.47 0.44 0.41 0.40 0.40 0.39 0.38 0.42 0.49 0.60 0.76
1.30 1.27 1.28 1.38 1.52 1.64 1.73 1.81 1.92 1.96 1.92 1.82 1.71 1.51 1.26 1.23 1.28 1.28 1.27 1.30 1.12 1.04 1.03 0.97 0.87 0.78 0.71 0.62 0.53 0.46 0.42 0.40 0.40 0.39 0.37 0.39 0.44 0.54
1.06 1.06 1.10 1.13 1.20 1.31 1.46 1.67 1.85 1.95 1.99 1.97 1.88 1.64 1.45 1.40 1.37 1.36 1.40 1.42 1.37 1.20 1.11 1.06 1.08 0.99 0.86 0.75 0.66 0.56 0.52 0.49 0.47 0.45 0.42 0.37 0.34 0.37
0.85 0.77 0.79 0.84 0.85 0.93 0.99 1.26 1.51 1.70 1.81 1.88 1.85 1.68 1.47 1.37 1.27 1.30 1.39 1.51 1.54 1.48 1.39 1.19 1.12 1.06 1.00 0.90 0.79 0.68 0.59 0.55 0.53 0.50 0.49 0.49 0.46 0.41
0.74 0.68 0.66 0.70 0.62 0.59 0.62 0.84 1.12 1.30 1.46 1.63 1.69 1.55 1.43 1.34 1.37 1.37 1.35 1.35 1.35 1.28 1.26 1.30 1.23 1.14 1.05 0.98 0.97 0.89 0.80 0.69 0.61 0.56 0.55 0.56 0.59 0.60
0.77 0.79 0.72 0.68 0.75 0.66 0.60 0.67 0.76 0.87 1.01 1.24 1.45 1.45 1.55 1.47 1.35 1.29 1.28 1.28 1.25 1.28 1.24 1.23 1.19 1.11 1.01 0.97 1.05 0.98 0.93 0.87 0.78 0.72 0.66 0.64 0.64 0.66
0.83 0.92 0.93 0.86 0.83 0.89 0.83 0.84 0.82 0.76 0.83 0.74 0.93 1.29 1.43 1.48 1.41 1.40 1.46 1.35 1.25 1.25 1.20 1.18 1.18 1.11 0.98 0.91 0.94 0.86 0.80 0.77 0.79 0.82 0.84 0.84 0.80 0.77
0.78 0.89 0.92 0.85 0.90 0.96 1.06 1.10 1.02 0.89 1.03 1.04 0.95 1.04 1.16 1.21 1.29 1.33 1.36 1.28 1.23 1.18 1.04 0.96 0.94 0.98 1.00 0.94 0.91 0.91 0.82 0.74 0.69 0.66 0.64 0.67 0.72 0.79
0.80 0.85 0.99 0.90 0.87 0.86 0.93 1.05 1.03 0.92 0.81 0.85 0.82 0.72 0.67 0.77 0.95 1.08 1.30 1.37 1.29 1.18 1.03 0.93 0.93 0.90 0.91 0.85 0.78 0.79 0.78 0.79 0.74 0.66 0.62 0.58 0.59 0.61
0.91 0.95 0.93 0.99 0.83 0.80 0.80 0.80 0.87 0.86 0.83 0.88 0.94 0.86 0.76 0.71 0.75 0.81 0.97 1.13 1.21 1.11 1.01 0.90 0.89 0.87 0.80 0.71 0.68 0.69 0.69 0.67 0.64 0.64 0.62 0.60 0.59 0.54
0.80 0.80 0.76 0.83 0.67 0.60 0.56 0.62 0.68 0.71 0.78 0.91 0.92 0.89 0.89 0.84 0.79 0.79 0.83 0.89 0.95 0.99 0.97 0.91 0.84 0.80 0.75 0.66 0.63 0.65 0.64 0.60 0.56 0.54 0.53 0.61 0.63 0.65
0.52 0.60 0.60 0.58 0.53 0.46 0.50 0.54 0.56 0.58 0.68 0.75 0.79 0.77 0.78 0.82 0.81 0.79 0.78 0.79 0.77 0.72 0.69 0.72 0.77 0.79 0.77 0.70 0.61 0.61 0.63 0.59 0.54 0.53 0.53 0.51 0.49 0.55
0.42 0.43 0.42 0.41 0.43 0.44 0.46 0.50 0.56 0.60 0.62 0.63 0.64 0.68 0.70 0.75 0.80 0.76 0.75 0.78 0.81 0.78 0.74 0.73 0.75 0.81 0.82 0.74 0.67 0.60 0.60 0.61 0.57 0.55 0.54 0.53 0.51 0.49
0.50 0.44 0.40 0.40 0.43 0.49 0.51 0.48 0.51 0.56 0.56 0.55 0.57 0.59 0.59 0.64 0.68 0.67 0.68 0.69 0.68 0.66 0.67 0.71 0.73 0.75 0.76 0.76 0.77 0.72 0.71 0.69 0.67 0.66 0.64 0.58 0.53 0.51
0.48 0.54 0.56 0.60 0.63 0.61 0.58 0.49 0.44 0.45 0.50 0.54 0.54 0.54 0.55 0.54 0.59 0.60 0.59 0.62 0.62 0.56 0.51 0.53 0.58 0.63 0.64 0.62 0.58 0.60 0.66 0.68 0.73 0.75 0.70 0.65 0.58 0.55
0.44 0.59 0.60 0.58 0.54 0.50 0.47 0.40 0.35 0.32 0.34 0.41 0.48 0.55 0.56 0.56 0.60 0.63 0.60 0.54 0.53 0.54 0.51 0.45 0.44 0.49 0.52 0.48 0.45 0.43 0.46 0.53 0.59 0.62 0.63 0.60 0.54 0.54
0.38 0.46 0.45 0.43 0.36 0.29 0.23 0.17 0.16 0.16 0.16 0.21 0.25 0.34 0.48 0.58 0.66 0.69 0.69 0.69 0.67 0.63 0.58 0.51 0.42 0.37 0.38 0.38 0.34 0.30 0.30 0.36 0.44 0.47 0.47 0.49 0.49 0.53
0.18 0.19 0.18 0.19 0.17 0.14 0.10 0.08 0.07 0.07 0.08 0.10 0.14 0.19 0.28 0.40 0.56 0.66 0.69 0.73 0.71 0.71 0.69 0.62 0.59 0.58 0.48 0.43 0.39 0.29 0.26 0.28 0.30 0.32 0.35 0.38 0.39 0.39
0.09 0.08 0.07 0.07 0.07 0.06 0.06 0.06 0.05 0.05 0.06 0.09 0.14 0.19 0.28 0.33 0.37 0.46 0.57 0.61 0.57 0.54 0.56 0.59 0.60 0.60 0.55 0.54 0.49 0.39 0.31 0.29 0.31 0.36 0.33 0.33 0.31 0.29
0.08 0.07 0.07 0.05 0.04 0.05 0.06 0.05 0.04 0.05 0.05 0.07 0.10 0.16 0.23 0.31 0.36 0.37 0.39 0.42 0.47 0.51 0.52 0.53 0.54 0.55 0.57 0.58 0.60 0.56 0.46 0.39 0.37 0.39 0.42 0.50 0.45 0.33

GEFSNE_prec_meanprecacc_132.txt.gz
Total_Precipitation_Accumulation
1.91 1.96 1.90 1.87 1.84 1.73 1.68 1.76 1.81 1.66 1.52 1.32 1.21 1.15 1.17 1.15 1.25 1.04 0.96 0.89 0.71 0.59 0.50 0.43 0.41 0.47 0.53 0.69 0.81 0.83 0.89 0.91 0.91 0.92 0.91 0.92 0.94 0.94
1.89 2.00 1.99 1.98 2.01 1.93 1.79 1.73 1.67 1.67 1.59 1.36 1.19 1.10 1.23 1.16 1.26 1.06 1.00 1.10 0.90 0.72 0.62 0.54 0.49 0.47 0.46 0.52 0.59 0.59 0.59 0.59 0.66 0.77 0.89 1.06 1.10 1.02
1.71 1.78 1.89 1.98 2.09 2.10 2.07 1.92 1.78 1.74 1.64 1.47 1.28 1.13 1.25 1.30 1.25 1.19 1.09 0.98 0.92 0.84 0.73 0.69 0.62 0.52 0.50 0.52 0.58 0.54 0.53 0.49 0.46 0.51 0.63 0.80 1.07 1.11
1.52 1.48 1.57 1.69 1.82 1.97 2.04 1.98 1.96 1.86 1.76 1.70 1.53 1.29 1.18 1.22 1.25 1.32 1.25 1.06 0.98 1.03 0.94 0.81 0.73 0.63 0.56 0.52 0.55 0.52 0.50 0.48 0.45 0.43 0.45 0.52 0.64 0.82
1.31 1.28 1.30 1.40 1.53 1.65 1.74 1.82 1.94 1.98 1.95 1.85 1.76 1.56 1.31 1.29 1.32 1.32 1.32 1.37 1.17 1.09 1.09 1.03 0.92 0.83 0.77 0.68 0.60 0.54 0.52 0.49 0.48 0.45 0.41 0.42 0.48 0.60
1.06 1.07 1.11 1.14 1.21 1.33 1.47 1.68 1.87 1.97 2.03 2.00 1.91 1.68 1.49 1.43 1.41 1.40 1.44 1.47 1.43 1.24 1.15 1.10 1.14 1.04 0.91 0.79 0.71 0.62 0.59 0.56 0.54 0.53 0.48 0.40 0.37 0.41
0.86 0.77 0.79 0.85 0.86 0.94 0.99 1.27 1.52 1.73 1.85 1.92 1.88 1.71 1.50 1.39 1.29 1.32 1.43 1.55 1.59 1.53 1.44 1.23 1.17 1.12 1.05 0.94 0.82 0.72 0.64 0.60 0.57 0.55 0.54 0.54 0.50 0.44
0.75 0.69 0.67 0.71 0.62 0.59 0.63 0.84 1.13 1.33 1.50 1.66 1.71 1.58 1.44 1.36 1.39 1.39 1.39 1.40 1.39 1.32 1.31 1.34 1.26 1.18 1.11 1.03 1.00 0.92 0.84 0.75 0.67 0.61 0.60 0.61 0.63 0.63
0.78 0.80 0.73 0.68 0.76 0.67 0.61 0.68 0.77 0.88 1.03 1.28 1.48 1.47 1.56 1.48 1.37 1.31 1.31 1.33 1.30 1.32 1.29 1.30 1.24 1.15 1.06 1.03 1.11 1.01 0.96 0.90 0.83 0.77 0.71 0.69 0.69 0.70
0.84 0.93 0.93 0.87 0.84 0.91 0.85 0.86 0.84 0.77 0.83 0.76 0.96 1.31 1.45 1.50 1.43 1.43 1.49 1.40 1.29 1.29 1.25 1.25 1.24 1.17 1.03 0.96 1.02 0.92 0.83 0.80 0.82 0.86 0.89 0.88 0.84 0.82
0.79 0.90 0.92 0.85 0.90 0.96 1.08 1.13 1.05 0.91 1.04 1.05 0.96 1.05 1.18 1.23 1.32 1.36 1.39 1.31 1.27 1.22 1.09 1.02 1.00 1.05 1.08 1.00 0.97 0.98 0.87 0.78 0.73 0.70 0.68 0.70 0.75 0.82
0.80 0.86 0.99 0.90 0.87 0.86 0.95 1.07 1.06 0.94 0.83 0.87 0.84 0.74 0.68 0.78 0.96 1.10 1.33 1.39 1.33 1.22 1.07 0.98 0.99 0.96 0.99 0.93 0.85 0.86 0.84 0.85 0.80 0.72 0.68 0.64 0.65 0.64
0.91 0.96 0.93 0.99 0.83 0.80 0.81 0.82 0.89 0.88 0.86 0.91 0.98 0.89 0.78 0.72 0.76 0.83 1.00 1.16 1.26 1.17 1.05 0.93 0.94 0.93 0.86 0.78 0.75 0.77 0.77 0.74 0.72 0.72 0.71 0.69 0.67 0.61
0.80 0.80 0.76 0.83 0.68 0.60 0.57 0.63 0.69 0.73 0.81 0.94 0.95 0.92 0.91 0.85 0.81 0.82 0.86 0.92 0.99 1.02 1.00 0.95 0.89 0.85 0.81 0.74 0.71 0.73 0.72 0.70 0.66 0.63 0.62 0.71 0.74 0.75
0.52 0.60 0.60 0.59 0.54 0.47 0.51 0.55 0.57 0.60 0.70 0.78 0.81 0.79 0.79 0.84 0.83 0.82 0.82 0.83 0.80 0.74 0.70 0.74 0.81 0.83 0.82 0.76 0.67 0.67 0.68 0.65 0.61 0.60 0.60 0.58 0.57 0.63
0.42 0.44 0.43 0.42 0.44 0.44 0.46 0.51 0.57 0.61 0.63 0.64 0.65 0.69 0.71 0.77 0.83 0.79 0.77 0.81 0.83 0.80 0.76 0.75 0.77 0.83 0.86 0.79 0.71 0.63 0.63 0.64 0.60 0.58 0.57 0.58 0.56 0.54
0.50 0.44 0.40 0.40 0.43 0.50 0.51 0.49 0.52 0.56 0.56 0.55 0.57 0.60 0.60 0.65 0.70 0.69 0.70 0.71 0.71 0.68 0.69 0.73 0.76 0.78 0.79 0.78 0.79 0.74 0.73 0.72 0.69 0.68 0.66 0.61 0.57 0.54
0.49 0.55 0.56 0.61 0.63 0.61 0.59 0.50 0.45 0.45 0.50 0.54 0.54 0.55 0.56 0.56 0.60 0.62 0.61 0.64 0.64 0.58 0.53 0.54 0.59 0.65 0.67 0.64 0.61 0.61 0.68 0.70 0.74 0.77 0.72 0.67 0.60 0.57
0.45 0.60 0.60 0.58 0.54 0.51 0.47 0.41 0.35 0.33 0.34 0.41 0.49 0.56 0.57 0.57 0.61 0.64 0.61 0.55 0.54 0.55 0.52 0.46 0.44 0.50 0.54 0.50 0.47 0.44 0.47 0.54 0.60 0.63 0.64 0.61 0.55 0.55
0.40 0.47 0.47 0.44 0.38 0.30 0.24 0.18 0.17 0.17 0.17 0.22 0.26 0.34 0.48 0.58 0.67 0.69 0.70 0.70 0.67 0.63 0.59 0.51 0.43 0.38 0.39 0.39 0.36 0.32 0.32 0.37 0.46 0.48 0.48 0.50 0.50 0.53
0.21 0.22 0.21 0.21 0.19 0.15 0.12 0.09 0.08 0.08 0.09 0.11 0.15 0.20 0.28 0.41 0.57 0.67 0.70 0.74 0.72 0.72 0.70 0.63 0.59 0.58 0.48 0.44 0.40 0.30 0.27 0.29 0.32 0.34 0.37 0.40 0.40 0.40
0.11 0.11 0.10 0.10 0.10 0.09 0.08 0.07 0.07 0.07 0.07 0.10 0.15 0.21 0.29 0.34 0.38 0.46 0.57 0.61 0.58 0.55 0.57 0.60 0.61 0.60 0.56 0.55 0.50 0.40 0.32 0.29 0.32 0.36 0.34 0.33 0.31 0.30
0.10 0.10 0.09 0.08 0.08 0.09 0.08 0.07 0.06 0.07 0.07 0.08 0.12 0.18 0.24 0.32 0.37 0.38 0.40 0.43 0.47 0.51 0.53 0.54 0.55 0.55 0.57 0.59 0.61 0.56 0.46 0.39 0.37 0.39 0.42 0.50 0.45 0.33

GEFSNE_prec_meanprecacc_138.txt.gz
Total_Precipitation_Accumulation
1.93 1.98 1.92 1.89 1.87 1.76 1.72 1.81 1.87 1.72 1.59 1.39 1.25 1.19 1.22 1.19 1.28 1.10 1.01 0.91 0.71 0.61 0.51 0.44 0.44 0.49 0.57 0.76 0.90 0.91 0.98 1.02 1.02 1.01 0.99 0.97 0.98 0.97
1.92 2.01 2.01 2.01 2.03 1.95 1.82 1.77 1.71 1.73 1.64 1.42 1.23 1.13 1.27 1.18 1.28 1.10 1.05 1.13 0.91 0.74 0.64 0.57 0.51 0.49 0.48 0.56 0.65 0.64 0.63 0.64 0.73 0.85 0.97 1.11 1.14 1.06
1.72 1.80 1.90 2.00 2.12 2.13 2.10 1.95 1.81 1.78 1.69 1.52 1.32 1.17 1.30 1.35 1.29 1.23 1.13 1.02 0.96 0.86 0.74 0.72 0.65 0.54 0.52 0.55 0.62 0.59 0.57 0.52 0.50 0.57 0.67 0.83 1.10 1.14
1.55 1.52 1.60 1.72 1.86 2.00 2.06 2.00 1.99 1.90 1.80 1.75 1.57 1.31 1.21 1.28 1.31 1.37 1.29 1.11 1.03 1.05 0.95 0.84 0.77 0.67 0.59 0.54 0.59 0.58 0.55 0.51 0.48 0.46 0.47 0.54 0.67 0.84
1.34 1.30 1.32 1.43 1.56 1.69 1.77 1.84 1.96 1.99 1.98 1.88 1.78 1.58 1.34 1.34 1.38 1.37 1.37 1.43 1.22 1.12 1.12 1.06 0.97 0.88 0.81 0.70 0.64 0.61 0.57 0.52 0.50 0.48 0.45 0.46 0.52 0.64
1.07 1.08 1.13 1.16 1.24 1.36 1.50 1.70 1.90 2.00 2.06 2.04 1.93 1.70 1.52 1.49 1.48 1.46 1.50 1.53 1.49 1.29 1.20 1.14 1.17 1.08 0.95 0.82 0.74 0.69 0.65 0.61 0.57 0.57 0.53 0.45 0.41 0.46
0.87 0.78 0.80 0.86 0.87 0.95 1.01 1.29 1.54 1.75 1.89 1.96 1.91 1.75 1.54 1.44 1.34 1.39 1.50 1.63 1.66 1.62 1.53 1.28 1.22 1.16 1.09 0.98 0.85 0.76 0.70 0.66 0.62 0.60 0.60 0.60 0.55 0.49
0.76 0.69 0.67 0.71 0.62 0.59 0.63 0.85 1.14 1.34 1.52 1.70 1.76 1.62 1.48 1.40 1.44 1.46 1.45 1.46 1.45 1.40 1.40 1.42 1.34 1.24 1.15 1.07 1.02 0.94 0.86 0.79 0.71 0.67 0.67 0.68 0.69 0.70
0.79 0.80 0.73 0.69 0.76 0.67 0.61 0.68 0.77 0.88 1.04 1.30 1.52 1.51 1.60 1.52 1.42 1.36 1.36 1.38 1.35 1.38 1.37 1.37 1.31 1.21 1.10 1.06 1.15 1.04 0.98 0.92 0.86 0.80 0.75 0.75 0.75 0.76
0.84 0.93 0.94 0.87 0.84 0.91 0.87 0.88 0.85 0.77 0.84 0.76 0.98 1.35 1.48 1.53 1.47 1.49 1.55 1.47 1.34 1.33 1.32 1.32 1.31 1.21 1.06 0.98 1.05 0.94 0.85 0.81 0.84 0.88 0.91 0.91 0.89 0.86
0.79 0.90 0.93 0.87 0.91 0.97 1.09 1.15 1.08 0.94 1.04 1.05 0.97 1.07 1.21 1.26 1.36 1.43 1.47 1.37 1.31 1.26 1.14 1.06 1.05 1.10 1.13 1.05 1.01 1.01 0.89 0.79 0.75 0.73 0.71 0.74 0.79 0.87
0.81 0.86 1.00 0.91 0.88 0.87 0.96 1.10 1.09 0.97 0.84 0.88 0.85 0.75 0.70 0.80 0.99 1.14 1.39 1.46 1.38 1.27 1.11 1.01 1.02 1.00 1.04 0.98 0.90 0.92 0.88 0.88 0.83 0.75 0.71 0.67 0.68 0.68
0.92 0.97 0.94 1.01 0.84 0.81 0.82 0.84 0.92 0.91 0.89 0.94 1.01 0.91 0.79 0.74 0.77 0.84 1.03 1.22 1.32 1.23 1.10 0.97 0.97 0.97 0.90 0.82 0.78 0.81 0.81 0.78 0.76 0.77 0.76 0.73 0.71 0.65
0.81 0.81 0.77 0.85 0.70 0.62 0.58 0.64 0.70 0.74 0.85 0.98 0.97 0.94 0.93 0.87 0.83 0.84 0.89 0.97 1.04 1.08 1.05 0.99 0.94 0.90 0.85 0.77 0.74 0.76 0.77 0.75 0.71 0.68 0.66 0.76 0.79 0.80
0.53 0.61 0.62 0.60 0.55 0.48 0.52 0.57 0.58 0.61 0.72 0.80 0.83 0.80 0.81 0.86 0.85 0.85 0.86 0.87 0.84 0.78 0.73 0.77 0.85 0.89 0.88 0.81 0.71 0.69 0.71 0.70 0.65 0.64 0.64 0.62 0.61 0.68
0.43 0.45 0.45 0.45 0.46 0.46 0.48 0.53 0.58 0.63 0.66 0.67 0.67 0.71 0.73 0.80 0.86 0.82 0.81 0.85 0.86 0.82 0.77 0.77 0.80 0.88 0.91 0.83 0.76 0.67 0.66 0.68 0.64 0.62 0.60 0.61 0.60 0.57
0.52 0.46 0.42 0.43 0.46 0.52 0.53 0.51 0.54 0.59 0.59 0.58 0.59 0.61 0.62 0.68 0.73 0.72 0.73 0.75 0.74 0.69 0.71 0.75 0.78 0.80 0.82 0.82 0.83 0.78 0.77 0.76 0.73 0.72 0.69 0.64 0.59 0.57
0.51 0.58 0.59 0.63 0.66 0.64 0.62 0.53 0.48 0.48 0.53 0.56 0.56 0.57 0.59 0.60 0.65 0.67 0.65 0.68 0.68 0.61 0.55 0.56 0.61 0.67 0.70 0.68 0.64 0.65 0.71 0.73 0.78 0.81 0.76 0.70 0.64 0.61
0.47 0.63 0.64 0.62 0.58 0.56 0.52 0.44 0.39 0.36 0.37 0.44 0.52 0.58 0.60 0.61 0.65 0.70 0.66 0.60 0.59 0.59 0.55 0.48 0.47 0.52 0.57 0.53 0.51 0.48 0.51 0.58 0.64 0.66 0.67 0.64 0.59 0.60
0.41 0.50 0.50 0.50 0.43 0.36 0.30 0.25 0.24 0.23 0.22 0.27 0.31 0.38 0.52 0.63 0.72 0.74 0.75 0.75 0.73 0.68 0.63 0.55 0.47 0.42 0.42 0.43 0.40 0.36 0.37 0.43 0.50 0.52 0.53 0.55 0.55 0.58
0.23 0.24 0.24 0.26 0.25 0.22 0.19 0.18 0.17 0.17 0.17 0.18 0.21 0.25 0.32 0.44 0.60 0.71 0.75 0.79 0.78 0.77 0.74 0.66 0.62 0.62 0.52 0.48 0.44 0.34 0.31 0.34 0.38 0.39 0.41 0.44 0.45 0.45
0.14 0.14 0.14 0.14 0.15 0.15 0.15 0.16 0.16 0.16 0.16 0.18 0.22 0.26 0.33 0.37 0.40 0.49 0.61 0.66 0.62 0.58 0.60 0.63 0.65 0.64 0.58 0.58 0.54 0.42 0.34 0.32 0.35 0.40 0.37 0.36 0.33 0.32
0.13 0.13 0.13 0.13 0.14 0.17 0.18 0.17 0.16 0.16 0.16 0.17 0.19 0.24 0.30 0.37 0.40 0.41 0.43 0.46 0.51 0.54 0.56 0.57 0.58 0.58 0.59 0.61 0.63 0.58 0.48 0.41 0.39 0.41 0.43 0.52 0.46 0.34

GEFSNE_prec_meanprecacc_144.txt.gz
Total_Precipitation_Accumulation
1.93 1.98 1.92 1.90 1.88 1.77 1.73 1.81 1.88 1.74 1.61 1.43 1.29 1.21 1.24 1.21 1.31 1.13 1.05 0.94 0.74 0.64 0.54 0.47 0.47 0.53 0.61 0.82 0.99 1.03 1.09 1.11 1.11 1.10 1.06 1.01 1.01 1.00
1.92 2.01 2.01 2.02 2.04 1.96 1.82 1.78 1.72 1.74 1.66 1.44 1.25 1.15 1.29 1.19 1.30 1.13 1.08 1.18 0.95 0.77 0.67 0.60 0.53 0.51 0.50 0.58 0.69 0.70 0.69 0.70 0.81 0.93 1.04 1.17 1.17 1.08
1.72 1.80 1.90 2.01 2.12 2.14 2.10 1.97 1.83 1.79 1.70 1.53 1.33 1.19 1.32 1.37 1.31 1.25 1.16 1.07 1.00 0.90 0.77 0.75 0.68 0.56 0.53 0.56 0.64 0.63 0.60 0.55 0.53 0.62 0.73 0.90 1.14 1.16
1.55 1.52 1.60 1.72 1.86 2.00 2.07 2.01 2.01 1.91 1.81 1.76 1.58 1.34 1.23 1.30 1.34 1.41 1.33 1.14 1.05 1.09 0.99 0.87 0.81 0.70 0.61 0.55 0.60 0.59 0.56 0.53 0.50 0.48 0.50 0.58 0.71 0.88
1.34 1.31 1.33 1.43 1.57 1.69 1.77 1.85 1.97 2.00 1.99 1.89 1.79 1.59 1.36 1.37 1.40 1.39 1.40 1.47 1.26 1.16 1.15 1.09 1.01 0.92 0.85 0.73 0.66 0.62 0.58 0.54 0.52 0.50 0.47 0.48 0.54 0.67
1.07 1.08 1.13 1.17 1.24 1.36 1.50 1.71 1.90 2.01 2.07 2.05 1.95 1.72 1.54 1.52 1.50 1.47 1.52 1.57 1.53 1.33 1.24 1.17 1.20 1.13 1.00 0.89 0.79 0.72 0.67 0.63 0.59 0.58 0.54 0.47 0.43 0.48
0.87 0.78 0.80 0.86 0.87 0.95 1.01 1.29 1.54 1.76 1.89 1.96 1.92 1.78 1.57 1.47 1.37 1.40 1.52 1.66 1.73 1.67 1.58 1.32 1.25 1.19 1.13 1.04 0.93 0.82 0.75 0.69 0.65 0.62 0.62 0.63 0.58 0.52
0.76 0.69 0.67 0.71 0.62 0.59 0.63 0.85 1.14 1.34 1.53 1.71 1.76 1.63 1.50 1.42 1.47 1.47 1.46 1.49 1.52 1.45 1.45 1.46 1.38 1.28 1.19 1.11 1.09 1.02 0.93 0.84 0.76 0.71 0.71 0.72 0.73 0.73
0.79 0.80 0.73 0.69 0.76 0.67 0.62 0.69 0.77 0.89 1.04 1.30 1.53 1.52 1.61 1.53 1.44 1.38 1.38 1.40 1.40 1.45 1.46 1.46 1.37 1.26 1.15 1.11 1.22 1.13 1.06 0.99 0.92 0.86 0.80 0.80 0.80 0.81
0.84 0.93 0.94 0.87 0.84 0.92 0.87 0.88 0.85 0.78 0.84 0.76 0.98 1.36 1.49 1.54 1.49 1.51 1.58 1.51 1.39 1.39 1.40 1.43 1.38 1.28 1.13 1.04 1.12 1.03 0.94 0.90 0.91 0.94 0.96 0.96 0.94 0.93
0.79 0.90 0.94 0.88 0.92 0.97 1.10 1.16 1.09 0.94 1.04 1.05 0.97 1.08 1.22 1.27 1.37 1.46 1.50 1.41 1.36 1.29 1.18 1.16 1.12 1.16 1.20 1.11 1.07 1.09 0.97 0.88 0.82 0.78 0.76 0.78 0.83 0.92
0.81 0.87 1.01 0.93 0.90 0.88 0.97 1.11 1.09 0.97 0.85 0.88 0.86 0.76 0.70 0.81 1.01 1.17 1.42 1.51 1.43 1.32 1.15 1.08 1.09 1.06 1.09 1.03 0.94 0.97 0.94 0.94 0.89 0.81 0.76 0.72 0.72 0.72
0.92 0.97 0.95 1.02 0.86 0.83 0.84 0.85 0.94 0.92 0.90 0.95 1.01 0.91 0.80 0.76 0.80 0.88 1.07 1.27 1.37 1.29 1.17 1.04 1.04 1.04 0.95 0.85 0.82 0.84 0.85 0.82 0.80 0.82 0.82 0.80 0.79 0.70
0.81 0.82 0.78 0.86 0.72 0.64 0.59 0.66 0.73 0.78 0.86 0.99 0.98 0.94 0.93 0.88 0.85 0.87 0.93 1.01 1.10 1.15 1.12 1.08 1.03 0.99 0.93 0.81 0.77 0.79 0.80 0.79 0.74 0.72 0.72 0.84 0.87 0.87
0.53 0.62 0.62 0.61 0.56 0.50 0.54 0.59 0.62 0.64 0.75 0.82 0.84 0.81 0.82 0.87 0.87 0.87 0.89 0.92 0.89 0.83 0.79 0.83 0.93 0.98 0.96 0.87 0.75 0.73 0.75 0.73 0.68 0.67 0.67 0.66 0.66 0.73
0.44 0.46 0.46 0.45 0.47 0.48 0.50 0.55 0.61 0.66 0.70 0.72 0.71 0.74 0.75 0.82 0.88 0.86 0.84 0.89 0.92 0.86 0.82 0.81 0.85 0.95 0.99 0.91 0.83 0.73 0.72 0.73 0.68 0.65 0.63 0.64 0.62 0.59
0.53 0.47 0.43 0.44 0.47 0.53 0.55 0.54 0.58 0.63 0.64 0.63 0.65 0.66 0.66 0.71 0.76 0.76 0.77 0.79 0.78 0.73 0.75 0.80 0.84 0.86 0.87 0.87 0.88 0.82 0.82 0.81 0.79 0.77 0.73 0.67 0.62 0.59
0.52 0.58 0.60 0.65 0.67 0.66 0.64 0.55 0.51 0.53 0.59 0.64 0.64 0.64 0.65 0.64 0.68 0.71 0.71 0.74 0.73 0.65 0.59 0.61 0.68 0.74 0.76 0.73 0.68 0.68 0.74 0.76 0.81 0.85 0.80 0.75 0.67 0.63
0.47 0.63 0.65 0.63 0.60 0.58 0.55 0.48 0.43 0.41 0.44 0.53 0.61 0.68 0.69 0.69 0.71 0.75 0.73 0.68 0.66 0.65 0.60 0.55 0.54 0.60 0.64 0.58 0.55 0.52 0.55 0.61 0.68 0.71 0.71 0.67 0.62 0.63
0.41 0.50 0.51 0.51 0.45 0.38 0.33 0.29 0.29 0.28 0.29 0.34 0.40 0.48 0.63 0.73 0.81 0.82 0.82 0.82 0.79 0.74 0.69 0.61 0.53 0.48 0.49 0.49 0.45 0.41 0.42 0.46 0.53 0.55 0.56 0.58 0.57 0.60
0.23 0.24 0.24 0.26 0.27 0.24 0.21 0.21 0.22 0.23 0.24 0.26 0.28 0.33 0.42 0.55 0.71 0.81 0.83 0.87 0.85 0.82 0.78 0.70 0.67 0.68 0.59 0.56 0.51 0.40 0.36 0.39 0.42 0.43 0.44 0.47 0.48 0.48
0.14 0.14 0.14 0.15 0.16 0.17 0.17 0.19 0.22 0.23 0.22 0.24 0.28 0.33 0.41 0.46 0.51 0.59 0.70 0.74 0.68 0.64 0.65 0.67 0.71 0.71 0.65 0.66 0.61 0.50 0.41 0.38 0.42 0.45 0.42 0.40 0.37 0.35
0.15 0.14 0.14 0.14 0.15 0.19 0.21 0.21 0.21 0.22 0.23 0.24 0.26 0.32 0.40 0.47 0.50 0.51 0.53 0.56 0.59 0.61 0.62 0.63 0.64 0.64 0.65 0.68 0.71 0.66 0.55 0.48 0.46 0.47 0.47 0.56 0.51 0.38

GEFSNE_prec_meanprecacc_150.txt.gz
Total_Precipitation_Accumulation
1.93 1.98 1.92 1.90 1.88 1.78 1.73 1.82 1.88 1.74 1.63 1.46 1.31 1.23 1.24 1.21 1.32 1.14 1.07 0.97 0.76 0.67 0.57 0.49 0.49 0.57 0.68 0.90 1.09 1.14 1.20 1.23 1.26 1.23 1.17 1.11 1.10 1.07
1.92 2.01 2.01 2.02 2.04 1.96 1.83 1.78 1.72 1.75 1.67 1.46 1.26 1.17 1.30 1.20 1.30 1.13 1.09 1.21 0.96 0.79 0.71 0.63 0.56 0.53 0.53 0.62 0.75 0.78 0.77 0.78 0.92 1.06 1.17 1.28 1.27 1.15
1.72 1.80 1.90 2.01 2.12 2.14 2.11 1.97 1.83 1.80 1.71 1.55 1.34 1.20 1.33 1.38 1.31 1.26 1.17 1.08 1.02 0.93 0.82 0.80 0.73 0.60 0.58 0.60 0.68 0.69 0.66 0.61 0.59 0.70 0.84 0.99 1.22 1.23
1.55 1.52 1.60 1.72 1.86 2.00 2.08 2.02 2.01 1.92 1.82 1.78 1.59 1.34 1.24 1.31 1.35 1.42 1.35 1.15 1.06 1.10 1.03 0.94 0.88 0.74 0.65 0.60 0.64 0.64 0.61 0.58 0.54 0.52 0.55 0.63 0.77 0.94
1.34 1.31 1.33 1.43 1.57 1.69 1.77 1.85 1.97 2.01 2.00 1.90 1.80 1.60 1.37 1.38 1.42 1.41 1.43 1.50 1.27 1.16 1.17 1.13 1.06 0.97 0.89 0.77 0.71 0.67 0.61 0.57 0.56 0.53 0.49 0.51 0.59 0.73
1.07 1.08 1.13 1.17 1.24 1.36 1.50 1.71 1.90 2.01 2.08 2.06 1.97 1.74 1.55 1.53 1.51 1.49 1.54 1.60 1.57 1.36 1.25 1.18 1.23 1.17 1.05 0.93 0.85 0.79 0.72 0.66 0.62 0.61 0.57 0.49 0.46 0.52
0.87 0.78 0.80 0.86 0.87 0.95 1.01 1.29 1.54 1.76 1.90 1.98 1.95 1.81 1.60 1.48 1.37 1.41 1.53 1.68 1.75 1.70 1.60 1.34 1.26 1.21 1.16 1.09 0.99 0.89 0.82 0.76 0.70 0.66 0.66 0.66 0.61 0.55
0.76 0.69 0.67 0.71 0.62 0.59 0.63 0.85 1.14 1.34 1.53 1.71 1.77 1.65 1.52 1.43 1.47 1.48 1.47 1.51 1.54 1.47 1.46 1.48 1.40 1.30 1.21 1.14 1.14 1.09 1.01 0.92 0.83 0.77 0.75 0.75 0.76 0.77
0.79 0.80 0.73 0.69 0.76 0.67 0.62 0.69 0.77 0.89 1.04 1.31 1.53 1.52 1.61 1.53 1.44 1.39 1.39 1.42 1.43 1.49 1.49 1.49 1.39 1.28 1.16 1.13 1.26 1.18 1.14 1.09 1.03 0.95 0.88 0.86 0.85 0.85
0.84 0.93 0.94 0.87 0.85 0.92 0.87 0.88 0.85 0.78 0.84 0.77 0.98 1.36 1.50 1.55 1.49 1.51 1.59 1.51 1.40 1.44 1.45 1.46 1.40 1.29 1.15 1.06 1.15 1.07 0.99 0.97 1.01 1.07 1.08 1.06 1.02 0.99
0.79 0.90 0.94 0.88 0.92 0.98 1.11 1.17 1.09 0.94 1.04 1.05 0.97 1.08 1.22 1.28 1.38 1.47 1.51 1.43 1.38 1.32 1.22 1.20 1.15 1.18 1.24 1.15 1.10 1.13 1.02 0.94 0.90 0.88 0.88 0.90 0.94 1.01
0.81 0.87 1.01 0.93 0.90 0.88 0.97 1.11 1.10 0.98 0.85 0.89 0.86 0.76 0.71 0.82 1.01 1.17 1.43 1.52 1.45 1.35 1.18 1.12 1.14 1.10 1.13 1.08 0.99 1.02 1.00 1.01 0.98 0.90 0.87 0.83 0.84 0.82
0.93 0.97 0.95 1.03 0.86 0.83 0.84 0.85 0.94 0.94 0.91 0.96 1.01 0.91 0.81 0.76 0.80 0.88 1.08 1.28 1.39 1.31 1.20 1.07 1.10 1.10 1.00 0.90 0.88 0.91 0.92 0.89 0.89 0.92 0.93 0.92 0.91 0.82
0.82 0.82 0.78 0.86 0.72 0.64 0.60 0.66 0.74 0.79 0.88 1.00 0.99 0.95 0.94 0.89 0.87 0.89 0.94 1.04 1.13 1.18 1.17 1.12 1.07 1.05 1.00 0.87 0.83 0.85 0.87 0.86 0.82 0.81 0.81 0.95 1.00 1.01
0.54 0.62 0.62 0.61 0.57 0.50 0.54 0.59 0.62 0.65 0.76 0.84 0.86 0.83 0.83 0.89 0.89 0.89 0.91 0.94 0.93 0.87 0.84 0.90 0.98 1.03 1.04 0.95 0.83 0.80 0.82 0.80 0.75 0.74 0.75 0.75 0.75 0.84
0.45 0.47 0.46 0.46 0.47 0.48 0.50 0.55 0.62 0.67 0.70 0.73 0.73 0.76 0.77 0.84 0.91 0.88 0.87 0.92 0.96 0.92 0.86 0.86 0.91 1.01 1.05 0.98 0.91 0.82 0.80 0.79 0.74 0.71 0.69 0.70 0.69 0.69
0.53 0.48 0.44 0.44 0.47 0.53 0.56 0.54 0.58 0.64 0.64 0.64 0.66 0.69 0.68 0.74 0.79 0.80 0.81 0.83 0.82 0.78 0.79 0.85 0.90 0.94 0.94 0.94 0.95 0.89 0.89 0.88 0.85 0.84 0.80 0.73 0.67 0.65
0.52 0.59 0.61 0.65 0.67 0.66 0.64 0.56 0.51 0.53 0.60 0.66 0.66 0.66 0.67 0.67 0.71 0.75 0.75 0.79 0.78 0.70 0.64 0.66 0.75 0.83 0.83 0.79 0.74 0.74 0.80 0.81 0.86 0.91 0.86 0.81 0.74 0.69
0.48 0.64 0.65 0.63 0.60 0.58 0.55 0.49 0.43 0.41 0.45 0.54 0.64 0.71 0.72 0.72 0.75 0.79 0.77 0.73 0.71 0.70 0.65 0.60 0.61 0.68 0.71 0.64 0.60 0.57 0.61 0.67 0.73 0.76 0.77 0.73 0.68 0.69
0.43 0.51 0.52 0.51 0.45 0.39 0.33 0.30 0.30 0.29 0.30 0.36 0.42 0.51 0.66 0.76 0.85 0.86 0.86 0.87 0.85 0.81 0.75 0.67 0.59 0.55 0.56 0.55 0.51 0.47 0.47 0.53 0.60 0.62 0.62 0.64 0.63 0.67
0.24 0.25 0.25 0.27 0.28 0.25 0.22 0.22 0.23 0.24 0.26 0.28 0.31 0.36 0.45 0.59 0.76 0.85 0.88 0.92 0.90 0.89 0.86 0.77 0.72 0.76 0.67 0.64 0.59 0.46 0.41 0.45 0.49 0.50 0.52 0.55 0.56 0.55
0.15 0.15 0.15 0.16 0.17 0.18 0.19 0.20 0.23 0.24 0.23 0.26 0.31 0.37 0.46 0.51 0.55 0.64 0.76 0.80 0.74 0.71 0.72 0.74 0.77 0.78 0.74 0.74 0.69 0.56 0.47 0.44 0.49 0.54 0.50 0.49 0.45 0.43
0.15 0.15 0.15 0.15 0.16 0.20 0.22 0.22 0.22 0.24 0.24 0.26 0.29 0.36 0.44 0.53 0.56 0.57 0.59 0.63 0.66 0.69 0.70 0.71 0.72 0.72 0.74 0.76 0.79 0.73 0.62 0.55 0.54 0.55 0.55 0.64 0.58 0.45

GEFSNE_prec_meanprecacc_156.txt.gz
Total_Precipitation_Accumulation
1.94 1.99 1.93 1.92 1.90 1.79 1.74 1.84 1.90 1.76 1.64 1.48 1.33 1.24 1.26 1.21 1.32 1.15 1.08 0.97 0.77 0.68 0.59 0.53 0.56 0.66 0.80 1.05 1.23 1.29 1.38 1.43 1.41 1.34 1.28 1.21 1.20 1.16
1.92 2.02 2.02 2.03 2.06 1.98 1.84 1.79 1.73 1.76 1.69 1.47 1.28 1.18 1.31 1.20 1.31 1.13 1.10 1.21 0.97 0.80 0.72 0.65 0.59 0.57 0.58 0.69 0.83 0.86 0.89 0.97 1.10 1.17 1.23 1.34 1.33 1.23
1.72 1.80 1.91 2.02 2.14 2.15 2.12 1.98 1.84 1.81 1.72 1.57 1.36 1.22 1.34 1.39 1.32 1.27 1.17 1.09 1.03 0.94 0.84 0.82 0.74 0.62 0.61 0.65 0.74 0.76 0.75 0.75 0.80 0.88 0.95 1.08 1.29 1.31
1.55 1.52 1.60 1.72 1.87 2.01 2.09 2.03 2.02 1.93 1.83 1.79 1.61 1.36 1.25 1.32 1.36 1.43 1.35 1.16 1.08 1.12 1.04 0.95 0.90 0.76 0.68 0.64 0.68 0.70 0.68 0.65 0.67 0.67 0.66 0.73 0.86 1.03
1.34 1.31 1.33 1.43 1.57 1.70 1.78 1.86 1.97 2.01 2.00 1.91 1.82 1.63 1.39 1.39 1.43 1.42 1.43 1.51 1.28 1.18 1.18 1.15 1.08 1.00 0.93 0.83 0.76 0.72 0.67 0.62 0.61 0.59 0.58 0.60 0.67 0.79
1.07 1.08 1.13 1.17 1.24 1.37 1.51 1.71 1.91 2.02 2.08 2.08 1.98 1.75 1.57 1.54 1.52 1.50 1.55 1.61 1.59 1.37 1.27 1.20 1.25 1.19 1.08 1.00 0.92 0.84 0.77 0.71 0.66 0.65 0.62 0.55 0.52 0.57
0.87 0.78 0.80 0.86 0.87 0.96 1.01 1.30 1.55 1.77 1.91 1.99 1.96 1.82 1.60 1.49 1.38 1.42 1.54 1.70 1.78 1.72 1.62 1.35 1.28 1.23 1.18 1.14 1.06 0.97 0.88 0.81 0.74 0.69 0.68 0.68 0.64 0.58
0.77 0.69 0.67 0.71 0.63 0.59 0.63 0.85 1.14 1.35 1.54 1.72 1.78 1.66 1.52 1.44 1.48 1.49 1.48 1.53 1.56 1.49 1.48 1.49 1.41 1.31 1.22 1.17 1.19 1.18 1.09 0.98 0.88 0.81 0.79 0.78 0.79 0.79
0.79 0.81 0.73 0.69 0.76 0.68 0.62 0.69 0.78 0.89 1.05 1.31 1.53 1.52 1.62 1.54 1.45 1.39 1.40 1.43 1.44 1.50 1.50 1.50 1.40 1.30 1.18 1.14 1.28 1.23 1.22 1.15 1.08 1.00 0.92 0.90 0.89 0.88
0.84 0.93 0.94 0.88 0.85 0.92 0.88 0.88 0.85 0.78 0.84 0.77 0.98 1.36 1.50 1.55 1.50 1.52 1.60 1.53 1.41 1.45 1.47 1.48 1.41 1.30 1.16 1.07 1.17 1.10 1.04 1.02 1.05 1.12 1.14 1.12 1.08 1.05
0.79 0.90 0.94 0.88 0.92 0.98 1.11 1.17 1.09 0.94 1.05 1.06 0.98 1.08 1.22 1.28 1.39 1.48 1.53 1.45 1.40 1.33 1.24 1.21 1.17 1.20 1.24 1.16 1.12 1.16 1.06 0.99 0.93 0.92 0.93 0.96 1.02 1.11
0.81 0.87 1.01 0.93 0.90 0.88 0.97 1.12 1.11 0.98 0.86 0.89 0.86 0.76 0.71 0.82 1.01 1.17 1.44 1.54 1.47 1.36 1.19 1.13 1.15 1.12 1.15 1.09 1.00 1.04 1.02 1.06 1.02 0.95 0.91 0.89 0.92 0.92
0.93 0.98 0.95 1.03 0.86 0.83 0.84 0.86 0.95 0.94 0.92 0.97 1.03 0.92 0.81 0.76 0.81 0.89 1.09 1.29 1.41 1.33 1.21 1.09 1.11 1.12 1.03 0.92 0.89 0.92 0.94 0.92 0.94 0.98 0.99 0.99 0.98 0.89
0.82 0.82 0.78 0.86 0.72 0.64 0.60 0.66 0.74 0.79 0.88 1.00 1.00 0.96 0.95 0.89 0.87 0.90 0.95 1.04 1.14 1.19 1.19 1.14 1.09 1.07 1.04 0.91 0.85 0.87 0.89 0.89 0.85 0.86 0.88 1.02 1.07 1.09
0.54 0.62 0.63 0.62 0.58 0.51 0.55 0.60 0.62 0.65 0.77 0.84 0.86 0.83 0.84 0.89 0.89 0.89 0.91 0.95 0.94 0.88 0.85 0.91 1.01 1.06 1.08 1.00 0.87 0.83 0.85 0.84 0.79 0.78 0.81 0.82 0.81 0.90
0.45 0.47 0.47 0.47 0.48 0.49 0.52 0.57 0.62 0.67 0.71 0.73 0.73 0.76 0.78 0.85 0.91 0.89 0.88 0.93 0.98 0.93 0.87 0.88 0.94 1.06 1.10 1.03 0.97 0.87 0.85 0.84 0.79 0.75 0.74 0.76 0.77 0.78
0.55 0.50 0.46 0.46 0.48 0.55 0.58 0.57 0.61 0.65 0.65 0.65 0.67 0.69 0.69 0.75 0.80 0.81 0.82 0.84 0.84 0.80 0.82 0.88 0.93 0.98 0.99 0.99 1.00 0.95 0.96 0.95 0.91 0.90 0.86 0.80 0.75 0.73
0.53 0.60 0.62 0.67 0.69 0.68 0.67 0.58 0.54 0.55 0.61 0.67 0.67 0.68 0.69 0.68 0.72 0.75 0.76 0.80 0.79 0.72 0.66 0.69 0.79 0.89 0.89 0.83 0.78 0.78 0.84 0.87 0.93 0.98 0.94 0.89 0.81 0.77
0.49 0.66 0.68 0.65 0.62 0.60 0.58 0.51 0.45 0.43 0.46 0.55 0.65 0.72 0.73 0.74 0.77 0.80 0.78 0.74 0.72 0.71 0.67 0.63 0.65 0.75 0.80 0.71 0.64 0.60 0.65 0.71 0.79 0.84 0.85 0.81 0.75 0.75
0.46 0.56 0.58 0.57 0.48 0.42 0.37 0.33 0.33 0.31 0.31 0.37 0.43 0.52 0.68 0.79 0.87 0.88 0.88 0.89 0.86 0.82 0.77 0.69 0.62 0.60 0.64 0.65 0.58 0.51 0.52 0.59 0.67 0.69 0.69 0.71 0.71 0.75
0.27 0.28 0.29 0.31 0.31 0.27 0.24 0.24 0.25 0.26 0.27 0.29 0.32 0.37 0.47 0.61 0.79 0.89 0.90 0.93 0.92 0.91 0.88 0.79 0.75 0.80 0.73 0.73 0.68 0.52 0.46 0.50 0.55 0.57 0.59 0.62 0.63 0.62
0.16 0.16 0.16 0.16 0.18 0.19 0.20 0.21 0.25 0.26 0.25 0.27 0.33 0.39 0.48 0.54 0.58 0.68 0.81 0.84 0.77 0.73 0.74 0.77 0.80 0.82 0.80 0.83 0.78 0.65 0.53 0.49 0.55 0.60 0.58 0.56 0.52 0.49
0.16 0.15 0.15 0.16 0.19 0.24 0.25 0.24 0.24 0.25 0.25 0.27 0.30 0.37 0.46 0.55 0.58 0.60 0.63 0.67 0.70 0.72 0.73 0.74 0.76 0.77 0.79 0.83 0.87 0.83 0.71 0.62 0.61 0.62 0.62 0.70 0.64 0.50

GEFSNE_prec_meanprecacc_162.txt.gz
Total_Precipitation_Accumulation
1.95 2.01 1.95 1.94 1.91 1.80 1.77 1.88 1.95 1.81 1.68 1.50 1.35 1.26 1.27 1.23 1.34 1.18 1.10 0.99 0.79 0.69 0.61 0.57 0.64 0.79 0.95 1.19 1.36 1.41 1.50 1.58 1.67 1.69 1.54 1.41 1.38 1.33
1.93 2.02 2.03 2.04 2.07 1.99 1.86 1.82 1.76 1.80 1.72 1.49 1.30 1.19 1.32 1.21 1.33 1.15 1.11 1.22 0.99 0.81 0.73 0.66 0.60 0.60 0.64 0.78 0.92 0.96 0.99 1.09 1.28 1.49 1.52 1.53 1.48 1.36
1.73 1.81 1.92 2.03 2.16 2.17 2.15 2.02 1.87 1.83 1.75 1.59 1.38 1.23 1.35 1.40 1.34 1.28 1.19 1.11 1.05 0.95 0.85 0.83 0.76 0.63 0.63 0.67 0.78 0.80 0.79 0.82 0.90 1.06 1.22 1.28 1.44 1.40
1.56 1.54 1.62 1.73 1.88 2.03 2.10 2.05 2.04 1.95 1.85 1.81 1.63 1.38 1.27 1.33 1.37 1.45 1.37 1.18 1.11 1.13 1.05 0.96 0.91 0.77 0.68 0.64 0.69 0.72 0.70 0.70 0.75 0.79 0.87 0.92 0.99 1.11
1.35 1.32 1.34 1.44 1.58 1.72 1.80 1.87 1.99 2.03 2.02 1.93 1.84 1.65 1.41 1.40 1.44 1.43 1.45 1.54 1.31 1.20 1.20 1.16 1.09 1.00 0.93 0.84 0.77 0.73 0.68 0.64 0.67 0.68 0.68 0.74 0.78 0.88
1.08 1.09 1.14 1.18 1.26 1.38 1.52 1.73 1.93 2.04 2.11 2.10 2.00 1.77 1.60 1.56 1.53 1.52 1.57 1.65 1.63 1.41 1.30 1.22 1.26 1.20 1.08 1.00 0.93 0.85 0.78 0.73 0.69 0.70 0.68 0.63 0.60 0.66
0.88 0.79 0.81 0.87 0.88 0.96 1.02 1.30 1.56 1.79 1.93 2.00 1.98 1.84 1.62 1.51 1.40 1.43 1.56 1.73 1.81 1.76 1.66 1.39 1.30 1.25 1.19 1.15 1.08 0.99 0.90 0.83 0.77 0.72 0.73 0.74 0.71 0.65
0.77 0.70 0.68 0.72 0.63 0.60 0.63 0.85 1.15 1.36 1.55 1.73 1.79 1.67 1.54 1.45 1.50 1.50 1.50 1.56 1.59 1.52 1.52 1.53 1.44 1.34 1.25 1.19 1.20 1.19 1.11 1.00 0.91 0.84 0.82 0.83 0.86 0.86
0.79 0.81 0.74 0.69 0.77 0.68 0.62 0.69 0.78 0.89 1.05 1.32 1.54 1.54 1.63 1.55 1.46 1.41 1.42 1.46 1.47 1.53 1.54 1.53 1.43 1.34 1.21 1.16 1.30 1.24 1.24 1.18 1.11 1.03 0.95 0.94 0.94 0.95
0.84 0.93 0.94 0.88 0.85 0.93 0.88 0.89 0.85 0.78 0.85 0.77 0.99 1.37 1.51 1.56 1.51 1.54 1.63 1.56 1.45 1.48 1.50 1.51 1.44 1.32 1.18 1.09 1.18 1.11 1.06 1.05 1.08 1.15 1.16 1.14 1.13 1.12
0.79 0.90 0.94 0.88 0.92 0.98 1.11 1.17 1.10 0.94 1.05 1.06 0.98 1.09 1.23 1.29 1.39 1.49 1.55 1.48 1.43 1.36 1.26 1.23 1.18 1.21 1.26 1.16 1.12 1.17 1.08 1.02 0.97 0.95 0.96 0.99 1.06 1.17
0.81 0.87 1.01 0.93 0.90 0.88 0.97 1.12 1.11 0.98 0.86 0.90 0.87 0.77 0.71 0.82 1.01 1.18 1.46 1.56 1.50 1.40 1.21 1.15 1.16 1.14 1.17 1.10 1.01 1.05 1.04 1.09 1.06 0.97 0.93 0.92 0.96 0.96
0.93 0.98 0.95 1.03 0.86 0.83 0.84 0.86 0.95 0.94 0.92 0.97 1.04 0.94 0.82 0.77 0.81 0.89 1.10 1.31 1.43 1.34 1.22 1.10 1.13 1.14 1.05 0.94 0.90 0.94 0.96 0.94 0.97 1.01 1.01 1.01 1.02 0.93
0.82 0.82 0.78 0.86 0.72 0.64 0.60 0.66 0.74 0.80 0.89 1.01 1.01 0.97 0.96 0.90 0.88 0.91 0.95 1.05 1.14 1.20 1.19 1.15 1.10 1.08 1.05 0.92 0.87 0.88 0.91 0.91 0.87 0.89 0.91 1.06 1.12 1.13
0.54 0.62 0.63 0.62 0.58 0.51 0.56 0.60 0.63 0.66 0.77 0.85 0.87 0.84 0.85 0.89 0.90 0.90 0.92 0.95 0.95 0.89 0.86 0.93 1.03 1.07 1.09 1.01 0.89 0.86 0.87 0.86 0.81 0.81 0.86 0.87 0.87 0.96
0.45 0.47 0.48 0.47 0.49 0.50 0.53 0.57 0.63 0.67 0.71 0.74 0.74 0.77 0.79 0.86 0.92 0.89 0.89 0.93 0.98 0.94 0.88 0.89 0.95 1.07 1.12 1.04 0.98 0.89 0.88 0.87 0.82 0.79 0.79 0.82 0.85 0.87
0.55 0.50 0.47 0.47 0.50 0.56 0.59 0.58 0.61 0.66 0.66 0.66 0.68 0.70 0.70 0.76 0.81 0.81 0.83 0.85 0.85 0.81 0.82 0.89 0.94 1.00 1.01 1.01 1.02 0.96 0.98 0.99 0.97 0.95 0.92 0.86 0.81 0.81
0.53 0.61 0.63 0.68 0.71 0.70 0.68 0.60 0.55 0.56 0.63 0.68 0.68 0.69 0.70 0.69 0.73 0.76 0.77 0.81 0.81 0.73 0.67 0.70 0.81 0.91 0.92 0.85 0.80 0.80 0.86 0.90 0.98 1.05 1.01 0.94 0.86 0.82
0.49 0.67 0.68 0.66 0.63 0.62 0.59 0.52 0.47 0.44 0.47 0.56 0.66 0.73 0.75 0.75 0.78 0.81 0.79 0.75 0.74 0.72 0.68 0.64 0.67 0.77 0.82 0.73 0.65 0.62 0.66 0.74 0.83 0.88 0.91 0.87 0.81 0.81
0.47 0.57 0.59 0.58 0.50 0.45 0.39 0.35 0.34 0.33 0.33 0.38 0.44 0.54 0.69 0.80 0.89 0.90 0.90 0.90 0.88 0.84 0.79 0.71 0.64 0.62 0.67 0.67 0.60 0.53 0.55 0.62 0.71 0.73 0.74 0.78 0.78 0.83
0.27 0.28 0.30 0.32 0.32 0.28 0.26 0.27 0.28 0.28 0.29 0.31 0.34 0.39 0.49 0.63 0.81 0.90 0.91 0.95 0.93 0.92 0.90 0.81 0.76 0.81 0.75 0.76 0.71 0.54 0.48 0.53 0.59 0.62 0.64 0.69 0.71 0.70
0.16 0.16 0.16 0.17 0.19 0.20 0.21 0.22 0.26 0.28 0.27 0.30 0.35 0.41 0.51 0.56 0.60 0.70 0.82 0.85 0.79 0.74 0.76 0.78 0.82 0.84 0.82 0.85 0.80 0.66 0.55 0.52 0.58 0.64 0.63 0.63 0.61 0.58
0.16 0.15 0.16 0.16 0.19 0.25 0.26 0.25 0.25 0.27 0.27 0.29 0.33 0.40 0.48 0.57 0.61 0.62 0.65 0.70 0.73 0.75 0.76 0.77 0.78 0.80 0.82 0.85 0.89 0.85 0.73 0.65 0.64 0.66 0.66 0.75 0.70 0.57

GEFSNE_prec_meanprecacc_168.txt.gz
Total_Precipitation_Accumulation
1.95 2.01 1.96 1.94 1.91 1.81 1.78 1.90 1.96 1.81 1.68 1.51 1.37 1.29 1.30 1.25 1.35 1.19 1.11 1.00 0.81 0.72 0.64 0.60 0.71 0.97 1.11 1.30 1.45 1.50 1.61 1.71 1.81 1.82 1.68 1.57 1.56 1.49
1.93 2.03 2.04 2.04 2.07 1.99 1.87 1.83 1.76 1.80 1.72 1.50 1.31 1.21 1.34 1.23 1.35 1.17 1.11 1.23 1.00 0.82 0.74 0.68 0.63 0.67 0.76 0.85 0.99 1.04 1.07 1.19 1.38 1.59 1.65 1.67 1.61 1.50
1.73 1.82 1.94 2.03 2.16 2.18 2.16 2.03 1.88 1.84 1.75 1.59 1.38 1.24 1.37 1.43 1.37 1.31 1.21 1.12 1.06 0.97 0.87 0.84 0.77 0.65 0.71 0.75 0.83 0.85 0.85 0.87 0.94 1.11 1.28 1.35 1.54 1.51
1.57 1.55 1.62 1.74 1.89 2.04 2.12 2.06 2.05 1.95 1.85 1.81 1.64 1.38 1.28 1.35 1.40 1.47 1.40 1.20 1.13 1.16 1.07 0.98 0.92 0.78 0.71 0.70 0.75 0.75 0.73 0.73 0.77 0.80 0.89 0.96 1.03 1.17
1.36 1.33 1.35 1.45 1.59 1.72 1.80 1.88 1.99 2.04 2.03 1.93 1.84 1.65 1.41 1.41 1.45 1.45 1.47 1.57 1.34 1.23 1.22 1.17 1.10 1.02 0.94 0.85 0.80 0.77 0.71 0.66 0.68 0.69 0.71 0.83 0.85 0.94
1.08 1.09 1.14 1.18 1.26 1.38 1.52 1.73 1.93 2.04 2.11 2.10 2.00 1.77 1.60 1.57 1.54 1.53 1.59 1.66 1.65 1.44 1.32 1.24 1.28 1.22 1.09 1.02 0.94 0.88 0.83 0.76 0.72 0.73 0.71 0.71 0.75 0.75
0.88 0.79 0.81 0.87 0.88 0.97 1.02 1.31 1.56 1.79 1.93 2.00 1.98 1.84 1.63 1.52 1.40 1.44 1.57 1.73 1.82 1.77 1.68 1.41 1.33 1.28 1.22 1.17 1.09 1.00 0.93 0.88 0.81 0.76 0.77 0.79 0.83 0.82
0.77 0.70 0.68 0.72 0.63 0.60 0.63 0.85 1.15 1.36 1.55 1.73 1.79 1.68 1.54 1.46 1.50 1.50 1.51 1.57 1.60 1.53 1.53 1.54 1.47 1.36 1.28 1.22 1.23 1.21 1.13 1.04 0.96 0.88 0.87 0.86 0.91 0.99
0.79 0.81 0.74 0.69 0.77 0.68 0.62 0.69 0.78 0.89 1.05 1.32 1.54 1.54 1.63 1.55 1.46 1.41 1.43 1.47 1.47 1.53 1.54 1.54 1.45 1.35 1.22 1.17 1.31 1.25 1.25 1.20 1.14 1.06 0.98 0.98 0.98 1.00
0.84 0.93 0.94 0.88 0.85 0.93 0.88 0.89 0.85 0.78 0.85 0.77 0.99 1.37 1.51 1.57 1.51 1.54 1.64 1.57 1.45 1.48 1.50 1.52 1.44 1.33 1.18 1.09 1.18 1.11 1.06 1.06 1.10 1.17 1.19 1.18 1.16 1.15
0.79 0.90 0.94 0.88 0.92 0.98 1.11 1.17 1.10 0.94 1.05 1.06 0.98 1.09 1.23 1.29 1.40 1.49 1.56 1.49 1.44 1.36 1.26 1.23 1.18 1.21 1.26 1.17 1.13 1.17 1.08 1.03 0.98 0.96 0.97 1.01 1.09 1.20
0.81 0.87 1.01 0.93 0.90 0.88 0.97 1.12 1.11 0.98 0.86 0.90 0.87 0.77 0.71 0.82 1.02 1.18 1.46 1.57 1.51 1.40 1.21 1.15 1.17 1.14 1.17 1.11 1.02 1.06 1.05 1.10 1.07 0.98 0.94 0.93 0.98 0.98
0.93 0.98 0.95 1.03 0.86 0.83 0.84 0.86 0.95 0.95 0.92 0.97 1.05 0.94 0.82 0.77 0.81 0.89 1.10 1.31 1.43 1.34 1.22 1.10 1.13 1.15 1.05 0.94 0.92 0.95 0.96 0.94 0.97 1.01 1.02 1.02 1.03 0.95
0.82 0.82 0.78 0.86 0.72 0.64 0.60 0.66 0.74 0.80 0.89 1.01 1.01 0.97 0.96 0.90 0.88 0.91 0.95 1.05 1.14 1.20 1.20 1.16 1.11 1.09 1.06 0.93 0.88 0.89 0.91 0.91 0.88 0.90 0.91 1.07 1.12 1.14
0.54 0.62 0.63 0.62 0.58 0.51 0.56 0.60 0.63 0.66 0.77 0.85 0.87 0.84 0.85 0.89 0.90 0.90 0.92 0.95 0.95 0.89 0.87 0.93 1.03 1.08 1.10 1.02 0.90 0.87 0.89 0.86 0.82 0.82 0.86 0.88 0.88 0.97
0.45 0.48 0.48 0.48 0.49 0.50 0.53 0.57 0.63 0.68 0.71 0.74 0.74 0.77 0.79 0.86 0.92 0.90 0.89 0.94 0.98 0.94 0.88 0.89 0.96 1.08 1.12 1.05 0.99 0.91 0.90 0.89 0.82 0.80 0.80 0.83 0.86 0.88
0.55 0.50 0.47 0.47 0.50 0.56 0.59 0.58 0.62 0.67 0.67 0.66 0.68 0.70 0.70 0.76 0.81 0.82 0.83 0.85 0.85 0.81 0.82 0.89 0.95 1.00 1.02 1.02 1.03 0.97 1.00 1.01 0.98 0.96 0.93 0.87 0.82 0.82
0.53 0.61 0.63 0.68 0.71 0.70 0.68 0.60 0.55 0.57 0.63 0.69 0.69 0.69 0.70 0.69 0.73 0.76 0.77 0.81 0.81 0.73 0.67 0.70 0.81 0.92 0.92 0.86 0.81 0.81 0.88 0.92 1.00 1.06 1.02 0.96 0.87 0.84
0.49 0.67 0.68 0.66 0.63 0.62 0.59 0.53 0.48 0.45 0.47 0.57 0.67 0.74 0.75 0.75 0.78 0.81 0.80 0.76 0.74 0.73 0.68 0.64 0.67 0.79 0.84 0.74 0.67 0.63 0.67 0.75 0.84 0.90 0.92 0.88 0.82 0.82
0.47 0.57 0.59 0.58 0.50 0.45 0.40 0.35 0.35 0.33 0.33 0.39 0.45 0.54 0.70 0.81 0.89 0.90 0.90 0.91 0.88 0.84 0.79 0.71 0.64 0.63 0.68 0.69 0.62 0.54 0.55 0.63 0.71 0.73 0.75 0.79 0.79 0.85
0.27 0.28 0.30 0.32 0.32 0.28 0.26 0.27 0.28 0.28 0.30 0.31 0.35 0.40 0.50 0.64 0.82 0.91 0.92 0.96 0.94 0.93 0.90 0.81 0.77 0.81 0.76 0.77 0.73 0.55 0.49 0.54 0.60 0.63 0.65 0.71 0.72 0.71
0.16 0.16 0.16 0.17 0.19 0.20 0.21 0.22 0.26 0.28 0.27 0.30 0.35 0.42 0.52 0.57 0.62 0.72 0.84 0.86 0.80 0.76 0.77 0.79 0.83 0.85 0.83 0.86 0.81 0.67 0.56 0.52 0.59 0.65 0.65 0.65 0.63 0.60
0.16 0.15 0.16 0.16 0.19 0.25 0.26 0.25 0.26 0.28 0.28 0.29 0.34 0.41 0.49 0.59 0.63 0.64 0.68 0.71 0.74 0.76 0.77 0.78 0.79 0.80 0.82 0.86 0.90 0.85 0.73 0.65 0.64 0.66 0.67 0.76 0.71 0.59

GEFSNE_prec_meanprecacc_174.txt.gz
Total_Precipitation_Accumulation
1.95 2.02 1.97 1.95 1.92 1.81 1.79 1.92 1.98 1.84 1.71 1.53 1.39 1.31 1.32 1.27 1.37 1.20 1.13 1.02 0.84 0.75 0.70 0.69 0.81 1.07 1.26 1.45 1.61 1.62 1.72 1.83 1.95 2.01 1.83 1.72 1.74 1.69
1.94 2.03 2.05 2.05 2.07 1.99 1.87 1.84 1.77 1.81 1.74 1.52 1.33 1.24 1.36 1.27 1.38 1.19 1.13 1.25 1.02 0.84 0.77 0.72 0.69 0.73 0.85 1.01 1.13 1.19 1.19 1.27 1.45 1.69 1.78 1.78 1.74 1.64
1.73 1.82 1.94 2.03 2.16 2.18 2.16 2.04 1.88 1.84 1.76 1.60 1.40 1.26 1.39 1.45 1.40 1.34 1.22 1.13 1.08 0.99 0.89 0.86 0.80 0.68 0.74 0.82 0.93 0.99 1.02 0.97 1.01 1.17 1.34 1.43 1.62 1.62
1.57 1.55 1.62 1.74 1.89 2.04 2.12 2.06 2.05 1.95 1.85 1.82 1.66 1.40 1.29 1.37 1.44 1.51 1.42 1.22 1.15 1.19 1.10 1.00 0.94 0.80 0.72 0.75 0.83 0.87 0.88 0.87 0.83 0.84 0.94 1.01 1.10 1.26
1.36 1.33 1.35 1.45 1.59 1.72 1.81 1.88 2.00 2.04 2.03 1.93 1.85 1.66 1.42 1.42 1.47 1.48 1.50 1.60 1.36 1.25 1.24 1.19 1.12 1.03 0.96 0.87 0.85 0.87 0.82 0.78 0.77 0.73 0.74 0.86 0.90 0.99
1.08 1.09 1.14 1.19 1.26 1.38 1.53 1.74 1.93 2.04 2.11 2.10 2.00 1.77 1.61 1.57 1.55 1.54 1.61 1.68 1.67 1.45 1.33 1.24 1.29 1.25 1.13 1.04 0.96 0.93 0.92 0.85 0.78 0.78 0.74 0.73 0.77 0.78
0.88 0.79 0.81 0.88 0.89 0.97 1.02 1.31 1.56 1.79 1.93 2.00 1.98 1.84 1.63 1.52 1.40 1.44 1.57 1.74 1.82 1.78 1.68 1.41 1.33 1.28 1.24 1.19 1.10 1.01 0.97 0.98 0.90 0.82 0.82 0.83 0.86 0.84
0.77 0.70 0.68 0.72 0.63 0.60 0.64 0.85 1.15 1.36 1.55 1.73 1.79 1.68 1.54 1.46 1.50 1.51 1.51 1.57 1.60 1.53 1.53 1.55 1.47 1.36 1.28 1.22 1.23 1.22 1.14 1.09 1.07 0.96 0.90 0.90 0.94 1.02
0.79 0.81 0.74 0.69 0.77 0.68 0.62 0.69 0.78 0.89 1.05 1.32 1.54 1.54 1.63 1.56 1.47 1.41 1.43 1.47 1.47 1.53 1.54 1.54 1.45 1.35 1.22 1.17 1.31 1.26 1.26 1.22 1.20 1.15 1.03 1.01 1.01 1.04
0.84 0.93 0.94 0.88 0.85 0.93 0.88 0.89 0.85 0.78 0.85 0.77 0.99 1.37 1.51 1.57 1.52 1.55 1.64 1.57 1.45 1.48 1.50 1.52 1.44 1.33 1.18 1.09 1.18 1.11 1.07 1.06 1.13 1.24 1.25 1.22 1.19 1.19
0.79 0.90 0.94 0.88 0.92 0.98 1.11 1.17 1.10 0.94 1.05 1.06 0.98 1.09 1.23 1.29 1.40 1.50 1.56 1.49 1.44 1.36 1.26 1.23 1.18 1.21 1.26 1.17 1.13 1.17 1.08 1.03 0.99 0.99 1.01 1.04 1.11 1.23
0.81 0.87 1.01 0.93 0.90 0.88 0.97 1.12 1.11 0.98 0.86 0.90 0.87 0.77 0.71 0.82 1.02 1.19 1.47 1.58 1.51 1.41 1.22 1.15 1.17 1.14 1.17 1.11 1.02 1.06 1.05 1.10 1.07 1.00 0.98 0.95 0.99 1.01
0.93 0.98 0.95 1.03 0.87 0.83 0.84 0.86 0.95 0.95 0.92 0.97 1.05 0.94 0.82 0.77 0.81 0.90 1.10 1.32 1.44 1.36 1.23 1.11 1.14 1.15 1.06 0.95 0.92 0.95 0.96 0.95 0.97 1.02 1.04 1.05 1.05 0.96
0.82 0.82 0.79 0.87 0.73 0.64 0.60 0.67 0.75 0.80 0.89 1.01 1.01 0.97 0.96 0.90 0.88 0.91 0.95 1.05 1.15 1.21 1.21 1.17 1.12 1.09 1.06 0.93 0.88 0.90 0.92 0.91 0.88 0.90 0.92 1.08 1.14 1.16
0.54 0.63 0.64 0.62 0.58 0.52 0.56 0.61 0.63 0.66 0.77 0.85 0.88 0.85 0.85 0.89 0.90 0.90 0.92 0.95 0.96 0.89 0.87 0.94 1.04 1.09 1.10 1.02 0.90 0.88 0.89 0.87 0.82 0.82 0.87 0.88 0.88 0.98
0.45 0.48 0.48 0.48 0.49 0.50 0.53 0.58 0.63 0.68 0.72 0.74 0.75 0.77 0.79 0.86 0.92 0.90 0.89 0.94 0.98 0.94 0.88 0.90 0.97 1.09 1.13 1.05 0.99 0.91 0.90 0.89 0.83 0.81 0.80 0.83 0.86 0.88
0.55 0.50 0.47 0.47 0.50 0.56 0.59 0.58 0.62 0.67 0.67 0.66 0.68 0.71 0.70 0.76 0.81 0.82 0.83 0.85 0.85 0.81 0.83 0.89 0.96 1.02 1.03 1.03 1.04 0.97 1.00 1.02 1.00 0.97 0.94 0.88 0.83 0.82
0.54 0.61 0.63 0.68 0.71 0.70 0.69 0.61 0.56 0.57 0.63 0.69 0.69 0.69 0.70 0.69 0.73 0.76 0.78 0.82 0.81 0.73 0.67 0.70 0.82 0.93 0.94 0.87 0.81 0.82 0.89 0.92 1.01 1.08 1.03 0.96 0.88 0.84
0.49 0.67 0.68 0.66 0.64 0.62 0.59 0.53 0.48 0.45 0.47 0.57 0.67 0.74 0.76 0.75 0.79 0.82 0.80 0.76 0.74 0.73 0.69 0.64 0.68 0.80 0.86 0.75 0.67 0.63 0.68 0.75 0.86 0.92 0.94 0.89 0.82 0.83
0.47 0.57 0.59 0.58 0.50 0.45 0.40 0.35 0.35 0.33 0.33 0.39 0.45 0.55 0.70 0.82 0.90 0.91 0.90 0.91 0.89 0.85 0.80 0.71 0.64 0.64 0.70 0.71 0.63 0.55 0.56 0.64 0.73 0.75 0.77 0.80 0.80 0.85
0.27 0.29 0.30 0.32 0.32 0.29 0.27 0.27 0.28 0.28 0.30 0.32 0.35 0.40 0.50 0.65 0.83 0.92 0.93 0.96 0.95 0.94 0.91 0.82 0.77 0.82 0.77 0.79 0.75 0.57 0.50 0.55 0.62 0.65 0.67 0.72 0.74 0.72
0.17 0.17 0.17 0.17 0.19 0.20 0.21 0.22 0.26 0.28 0.27 0.30 0.36 0.42 0.52 0.58 0.63 0.73 0.85 0.87 0.80 0.76 0.77 0.79 0.84 0.86 0.83 0.87 0.83 0.69 0.57 0.53 0.60 0.67 0.67 0.67 0.64 0.61
0.16 0.16 0.16 0.17 0.20 0.25 0.26 0.25 0.26 0.28 0.28 0.30 0.34 0.41 0.50 0.59 0.64 0.66 0.69 0.72 0.75 0.76 0.77 0.78 0.79 0.81 0.83 0.87 0.92 0.87 0.75 0.67 0.66 0.68 0.68 0.77 0.72 0.59